Time,TemperatureF,DewpointF,PressureIn,WindDirection,WindDirectionDegrees,WindSpeedMPH,WindSpeedGustMPH,Humidity,HourlyPrecipIn,Conditions,Clouds,dailyrainin,SolarRadiationWatts/m^2,SoftwareType,DateUTC
2013-11-01 00:00:00,79.7,72.6,29.99,SSE,150,3.0,7.0,79,0.00,,FEW,0.00,0.00,VWS V14.01,2013-11-01 04:00:00,
2013-11-01 00:01:00,79.7,72.6,29.99,SE,129,3.0,6.0,79,0.00,,FEW,0.00,0.00,VWS V14.01,2013-11-01 04:01:00,
2013-11-01 00:06:00,79.7,73.0,29.99,ESE,111,0.0,6.0,80,0.00,,FEW,0.00,0.00,VWS V14.01,2013-11-01 04:06:00,
2013-11-01 00:11:00,79.7,73.0,29.99,SSE,155,0.0,0.0,80,0.00,,FEW,0.00,0.00,VWS V14.01,2013-11-01 04:11:00,
2013-11-01 00:16:00,79.6,72.9,29.99,SE,126,2.0,4.0,80,0.00,,FEW,0.00,0.00,VWS V14.01,2013-11-01 04:16:00,
2013-11-01 00:17:00,79.6,72.9,29.99,SE,142,0.0,4.0,80,0.00,,FEW,0.00,0.00,VWS V14.01,2013-11-01 04:17:00,
2013-11-01 00:21:00,79.5,72.8,29.99,SSE,157,1.0,4.0,80,0.00,,FEW,0.00,0.00,VWS V14.01,2013-11-01 04:21:00,
2013-11-01 00:22:00,79.5,72.8,29.99,SE,134,1.0,4.0,80,0.00,,FEW,0.00,0.00,VWS V14.01,2013-11-01 04:22:00,
2013-11-01 00:26:00,79.5,72.8,29.99,SE,136,1.0,5.0,80,0.00,,FEW,0.00,0.00,VWS V14.01,2013-11-01 04:26:00,
2013-11-01 00:27:00,79.5,72.8,29.99,SE,126,0.0,5.0,80,0.00,,FEW,0.00,0.00,VWS V14.01,2013-11-01 04:27:00,
2013-11-01 00:31:00,79.6,73.3,29.99,SE,142,0.0,2.0,81,0.00,,FEW,0.00,0.00,VWS V14.01,2013-11-01 04:31:00,
2013-11-01 00:32:00,79.6,73.3,29.99,East,90,3.0,3.0,81,0.00,,FEW,0.00,0.00,VWS V14.01,2013-11-01 04:32:00,
2013-11-01 00:36:00,79.6,73.3,29.99,ESE,116,0.0,5.0,81,0.00,,FEW,0.00,0.00,VWS V14.01,2013-11-01 04:36:00,
2013-11-01 00:37:00,79.6,73.3,29.99,ESE,114,0.0,5.0,81,0.00,,FEW,0.00,0.00,VWS V14.01,2013-11-01 04:37:00,
2013-11-01 00:42:00,79.5,73.2,29.99,SE,131,0.0,3.0,81,0.00,,FEW,0.00,0.00,VWS V14.01,2013-11-01 04:42:00,
2013-11-01 00:47:00,79.5,73.2,29.98,SSE,161,1.0,3.0,81,0.00,,FEW,0.00,0.00,VWS V14.01,2013-11-01 04:47:00,
2013-11-01 00:52:00,79.4,73.1,29.98,SE,132,4.0,4.0,81,0.00,,FEW,0.00,0.00,VWS V14.01,2013-11-01 04:52:00,
2013-11-01 00:53:00,79.4,73.1,29.98,SE,132,0.0,4.0,81,0.00,,FEW,0.00,0.00,VWS V14.01,2013-11-01 04:53:00,
2013-11-01 00:57:00,79.4,73.1,29.98,SE,128,1.0,4.0,81,0.00,,FEW,0.00,0.00,VWS V14.01,2013-11-01 04:57:00,
2013-11-01 00:58:00,79.4,73.1,29.98,SE,128,1.0,4.0,81,0.00,,FEW,0.00,0.00,VWS V14.01,2013-11-01 04:58:00,
2013-11-01 01:02:00,79.3,73.0,29.98,SSE,149,0.0,4.0,81,0.00,,FEW,0.00,0.00,VWS V14.01,2013-11-01 05:02:00,
2013-11-01 01:03:00,79.3,73.0,29.98,SSE,149,1.0,4.0,81,0.00,,FEW,0.00,0.00,VWS V14.01,2013-11-01 05:03:00,
2013-11-01 01:07:00,79.3,73.0,29.98,ESE,120,1.0,4.0,81,0.00,,FEW,0.00,0.00,VWS V14.01,2013-11-01 05:07:00,
2013-11-01 01:08:00,79.3,73.0,29.98,ESE,117,2.0,4.0,81,0.00,,FEW,0.00,0.00,VWS V14.01,2013-11-01 05:08:00,
2013-11-01 01:12:00,79.3,73.0,29.98,ESE,113,0.0,4.0,81,0.00,,FEW,0.00,0.00,VWS V14.01,2013-11-01 05:12:00,
2013-11-01 01:13:00,79.3,73.0,29.98,ESE,113,0.0,4.0,81,0.00,,FEW,0.00,0.00,VWS V14.01,2013-11-01 05:13:00,
2013-11-01 01:14:00,79.3,73.0,29.98,ESE,121,1.0,4.0,81,0.00,,FEW,0.00,0.00,VWS V14.01,2013-11-01 05:14:00,
2013-11-01 01:17:00,79.3,73.0,29.97,SE,137,0.0,4.0,81,0.00,,FEW,0.00,0.00,VWS V14.01,2013-11-01 05:17:00,
2013-11-01 01:18:00,79.3,73.0,29.97,SE,135,2.0,4.0,81,0.00,,FEW,0.00,0.00,VWS V14.01,2013-11-01 05:18:00,
2013-11-01 01:19:00,79.3,73.0,29.97,SE,134,1.0,4.0,81,0.00,,FEW,0.00,0.00,VWS V14.01,2013-11-01 05:19:00,
2013-11-01 01:22:00,79.2,72.9,29.97,ESE,123,2.0,5.0,81,0.00,,FEW,0.00,0.00,VWS V14.01,2013-11-01 05:22:00,
2013-11-01 01:23:00,79.2,72.9,29.97,ESE,123,0.0,5.0,81,0.00,,FEW,0.00,0.00,VWS V14.01,2013-11-01 05:23:00,
2013-11-01 01:24:00,79.2,72.9,29.97,ESE,102,1.0,5.0,81,0.00,,FEW,0.00,0.00,VWS V14.01,2013-11-01 05:24:00,
2013-11-01 01:25:00,79.2,72.9,29.97,ESE,102,1.0,5.0,81,0.00,,FEW,0.00,0.00,VWS V14.01,2013-11-01 05:25:00,
2013-11-01 01:27:00,79.2,72.9,29.97,ESE,113,0.0,5.0,81,0.00,,FEW,0.00,0.00,VWS V14.01,2013-11-01 05:27:00,
2013-11-01 01:28:00,79.3,73.0,29.97,ESE,119,2.0,5.0,81,0.00,,FEW,0.00,0.00,VWS V14.01,2013-11-01 05:28:00,
2013-11-01 01:29:00,79.2,72.9,29.97,ESE,120,1.0,5.0,81,0.00,,FEW,0.00,0.00,VWS V14.01,2013-11-01 05:29:00,
2013-11-01 01:30:00,79.2,72.9,29.97,ESE,121,3.0,5.0,81,0.00,,FEW,0.00,0.00,VWS V14.01,2013-11-01 05:30:00,
2013-11-01 01:32:00,79.2,72.9,29.97,ESE,106,0.0,2.0,81,0.00,,FEW,0.00,0.00,VWS V14.01,2013-11-01 05:32:00,
2013-11-01 01:33:00,79.3,73.0,29.97,ESE,106,0.0,2.0,81,0.00,,FEW,0.00,0.00,VWS V14.01,2013-11-01 05:33:00,
2013-11-01 01:34:00,79.3,73.3,29.97,ESE,109,1.0,2.0,82,0.00,,FEW,0.00,0.00,VWS V14.01,2013-11-01 05:34:00,
2013-11-01 01:35:00,79.3,73.3,29.97,ESE,113,1.0,2.0,82,0.00,,FEW,0.00,0.00,VWS V14.01,2013-11-01 05:35:00,
2013-11-01 01:37:00,79.3,73.3,29.97,ESE,110,3.0,3.0,82,0.00,,FEW,0.00,0.00,VWS V14.01,2013-11-01 05:37:00,
2013-11-01 01:38:00,79.3,73.3,29.97,ESE,110,1.0,3.0,82,0.00,,FEW,0.00,0.00,VWS V14.01,2013-11-01 05:38:00,
2013-11-01 01:39:00,79.3,73.3,29.97,ESE,116,1.0,3.0,82,0.00,,FEW,0.00,0.00,VWS V14.01,2013-11-01 05:39:00,
2013-11-01 01:40:00,79.3,73.3,29.97,ESE,105,2.0,4.0,82,0.00,,FEW,0.00,0.00,VWS V14.01,2013-11-01 05:40:00,
2013-11-01 01:43:00,79.3,73.3,29.97,ESE,117,1.0,3.0,82,0.00,,FEW,0.00,0.00,VWS V14.01,2013-11-01 05:43:00,
2013-11-01 01:44:00,79.2,73.2,29.97,ESE,121,0.0,3.0,82,0.00,,FEW,0.00,0.00,VWS V14.01,2013-11-01 05:44:00,
2013-11-01 01:45:00,79.2,72.9,29.97,ESE,121,1.0,3.0,81,0.00,,FEW,0.00,0.00,VWS V14.01,2013-11-01 05:45:00,
2013-11-01 01:48:00,79.2,72.9,29.97,ESE,109,0.0,6.0,81,0.00,,FEW,0.00,0.00,VWS V14.01,2013-11-01 05:48:00,
2013-11-01 01:49:00,79.1,72.8,29.97,ESE,123,0.0,6.0,81,0.00,,FEW,0.00,0.00,VWS V14.01,2013-11-01 05:49:00,
2013-11-01 01:50:00,79.2,72.9,29.97,SE,142,5.0,6.0,81,0.00,,FEW,0.00,0.00,VWS V14.01,2013-11-01 05:50:00,
2013-11-01 01:53:00,79.2,72.9,29.97,SE,130,0.0,4.0,81,0.00,,FEW,0.00,0.00,VWS V14.01,2013-11-01 05:53:00,
2013-11-01 01:54:00,79.2,72.9,29.97,ENE,76,3.0,4.0,81,0.00,,FEW,0.00,0.00,VWS V14.01,2013-11-01 05:54:00,
2013-11-01 01:55:00,79.2,72.9,29.97,ENE,67,0.0,4.0,81,0.00,,FEW,0.00,0.00,VWS V14.01,2013-11-01 05:55:00,
2013-11-01 01:58:00,79.2,72.9,29.97,SE,134,4.0,5.0,81,0.00,,FEW,0.00,0.00,VWS V14.01,2013-11-01 05:58:00,
2013-11-01 02:00:00,79.2,72.9,29.97,ESE,102,1.0,5.0,81,0.00,,FEW,0.00,0.00,VWS V14.01,2013-11-01 06:00:00,
2013-11-01 02:01:00,79.3,73.0,29.97,SE,126,0.0,3.0,81,0.00,,FEW,0.00,0.00,VWS V14.01,2013-11-01 06:01:00,
2013-11-01 02:03:00,79.3,73.0,29.97,East,95,0.0,6.0,81,0.00,,FEW,0.00,0.00,VWS V14.01,2013-11-01 06:03:00,
2013-11-01 02:04:00,79.3,73.0,29.97,SE,144,2.0,6.0,81,0.00,,FEW,0.00,0.00,VWS V14.01,2013-11-01 06:04:00,
2013-11-01 02:05:00,79.3,73.0,29.97,SE,132,1.0,6.0,81,0.00,,FEW,0.00,0.00,VWS V14.01,2013-11-01 06:05:00,
2013-11-01 02:06:00,79.3,73.0,29.97,ESE,105,0.0,7.0,81,0.00,,FEW,0.00,0.00,VWS V14.01,2013-11-01 06:06:00,
2013-11-01 02:08:00,79.3,73.0,29.97,SE,140,2.0,7.0,81,0.00,,FEW,0.00,0.00,VWS V14.01,2013-11-01 06:08:00,
2013-11-01 02:09:00,79.4,73.1,29.97,ESE,115,2.0,7.0,81,0.00,,FEW,0.00,0.00,VWS V14.01,2013-11-01 06:09:00,
2013-11-01 02:10:00,79.4,73.1,29.97,SE,128,1.0,7.0,81,0.00,,FEW,0.00,0.00,VWS V14.01,2013-11-01 06:10:00,
2013-11-01 02:11:00,79.4,73.1,29.97,SSE,157,5.0,5.0,81,0.00,,FEW,0.00,0.00,VWS V14.01,2013-11-01 06:11:00,
2013-11-01 02:13:00,79.4,73.1,29.97,SE,138,2.0,5.0,81,0.00,,FEW,0.00,0.00,VWS V14.01,2013-11-01 06:13:00,
2013-11-01 02:14:00,79.4,73.1,29.97,SE,144,3.0,5.0,81,0.00,,FEW,0.00,0.00,VWS V14.01,2013-11-01 06:14:00,
2013-11-01 02:15:00,79.4,73.1,29.96,ESE,116,2.0,7.0,81,0.00,,FEW,0.00,0.00,VWS V14.01,2013-11-01 06:15:00,
2013-11-01 02:16:00,79.4,73.1,29.96,ESE,116,0.0,7.0,81,0.00,,FEW,0.00,0.00,VWS V14.01,2013-11-01 06:16:00,
2013-11-01 02:17:00,79.4,73.1,29.96,ESE,119,2.0,7.0,81,0.00,,FEW,0.00,0.00,VWS V14.01,2013-11-01 06:17:00,
2013-11-01 02:18:00,79.4,73.1,29.96,ESE,121,3.0,7.0,81,0.00,,FEW,0.00,0.00,VWS V14.01,2013-11-01 06:18:00,
2013-11-01 02:19:00,79.4,73.1,29.96,SE,124,4.0,7.0,81,0.00,,FEW,0.00,0.00,VWS V14.01,2013-11-01 06:19:00,
2013-11-01 02:20:00,79.4,73.1,29.96,SE,128,1.0,1.0,81,0.00,,FEW,0.00,0.00,VWS V14.01,2013-11-01 06:20:00,
2013-11-01 02:21:00,79.4,73.1,29.96,SE,128,0.0,1.0,81,0.00,,FEW,0.00,0.00,VWS V14.01,2013-11-01 06:21:00,
2013-11-01 02:22:00,79.4,73.1,29.96,SE,128,2.0,4.0,81,0.00,,FEW,0.00,0.00,VWS V14.01,2013-11-01 06:22:00,
2013-11-01 02:23:00,79.4,73.1,29.96,SE,128,1.0,4.0,81,0.00,,FEW,0.00,0.00,VWS V14.01,2013-11-01 06:23:00,
2013-11-01 02:24:00,79.4,73.1,29.96,SE,128,0.0,4.0,81,0.00,,FEW,0.00,0.00,VWS V14.01,2013-11-01 06:24:00,
2013-11-01 02:25:00,79.4,73.1,29.96,SE,127,3.0,4.0,81,0.00,,FEW,0.00,0.00,VWS V14.01,2013-11-01 06:25:00,
2013-11-01 02:26:00,79.4,73.1,29.96,ESE,123,1.0,5.0,81,0.00,,FEW,0.00,0.00,VWS V14.01,2013-11-01 06:26:00,
2013-11-01 02:27:00,79.4,73.1,29.96,ESE,123,0.0,5.0,81,0.00,,FEW,0.00,0.00,VWS V14.01,2013-11-01 06:27:00,
2013-11-01 02:29:00,79.4,73.1,29.96,SE,124,0.0,7.0,81,0.00,,FEW,0.00,0.00,VWS V14.01,2013-11-01 06:29:00,
2013-11-01 02:31:00,79.3,72.6,29.96,ESE,113,0.0,1.0,80,0.00,,FEW,0.00,0.00,VWS V14.01,2013-11-01 06:31:00,
2013-11-01 02:32:00,79.3,72.6,29.96,SE,134,5.0,5.0,80,0.00,,FEW,0.00,0.00,VWS V14.01,2013-11-01 06:32:00,
2013-11-01 02:34:00,79.3,72.6,29.96,SE,124,1.0,5.0,80,0.00,,FEW,0.00,0.00,VWS V14.01,2013-11-01 06:34:00,
2013-11-01 02:36:00,79.3,72.6,29.96,ESE,123,1.0,5.0,80,0.00,,FEW,0.00,0.00,VWS V14.01,2013-11-01 06:36:00,
2013-11-01 02:37:00,79.3,72.6,29.96,SSE,151,4.0,5.0,80,0.00,,FEW,0.00,0.00,VWS V14.01,2013-11-01 06:37:00,
2013-11-01 02:39:00,79.3,72.6,29.96,ESE,122,3.0,6.0,80,0.00,,FEW,0.00,0.00,VWS V14.01,2013-11-01 06:39:00,
2013-11-01 02:40:00,79.3,72.6,29.96,SSE,148,0.0,6.0,80,0.00,,FEW,0.00,0.00,VWS V14.01,2013-11-01 06:40:00,
2013-11-01 02:41:00,79.3,72.6,29.96,SE,137,3.0,3.0,80,0.00,,FEW,0.00,0.00,VWS V14.01,2013-11-01 06:41:00,
2013-11-01 02:42:00,79.3,72.6,29.96,ESE,120,1.0,3.0,80,0.00,,FEW,0.00,0.00,VWS V14.01,2013-11-01 06:42:00,
2013-11-01 02:44:00,79.3,72.6,29.96,SE,138,0.0,5.0,80,0.00,,FEW,0.00,0.00,VWS V14.01,2013-11-01 06:44:00,
2013-11-01 02:45:00,79.3,72.6,29.95,SE,138,0.0,5.0,80,0.00,,FEW,0.00,0.00,VWS V14.01,2013-11-01 06:45:00,
2013-11-01 02:46:00,79.3,72.6,29.95,ESE,117,2.0,5.0,80,0.00,,FEW,0.00,0.00,VWS V14.01,2013-11-01 06:46:00,
2013-11-01 02:47:00,79.3,72.6,29.95,ESE,119,1.0,5.0,80,0.00,,FEW,0.00,0.00,VWS V14.01,2013-11-01 06:47:00,
2013-11-01 02:48:00,79.3,72.6,29.95,ESE,122,1.0,5.0,80,0.00,,FEW,0.00,0.00,VWS V14.01,2013-11-01 06:48:00,
2013-11-01 02:49:00,79.3,72.6,29.95,SSE,157,2.0,5.0,80,0.00,,FEW,0.00,0.00,VWS V14.01,2013-11-01 06:49:00,
2013-11-01 02:50:00,79.4,72.7,29.95,SE,128,2.0,5.0,80,0.00,,FEW,0.00,0.00,VWS V14.01,2013-11-01 06:50:00,
2013-11-01 02:51:00,79.4,73.1,29.95,ESE,116,2.0,3.0,81,0.00,,FEW,0.00,0.00,VWS V14.01,2013-11-01 06:51:00,
2013-11-01 02:52:00,79.4,73.1,29.95,SE,128,1.0,4.0,81,0.00,,FEW,0.00,0.00,VWS V14.01,2013-11-01 06:52:00,
2013-11-01 02:53:00,79.4,73.1,29.95,ESE,116,2.0,5.0,81,0.00,,FEW,0.00,0.00,VWS V14.01,2013-11-01 06:53:00,
2013-11-01 02:54:00,79.4,73.1,29.95,SE,134,1.0,5.0,81,0.00,,FEW,0.00,0.00,VWS V14.01,2013-11-01 06:54:00,
2013-11-01 02:55:00,79.4,73.1,29.95,SE,125,3.0,5.0,81,0.00,,FEW,0.00,0.00,VWS V14.01,2013-11-01 06:55:00,
2013-11-01 02:57:00,79.4,73.1,29.95,SE,145,3.0,5.0,81,0.00,,FEW,0.00,0.00,VWS V14.01,2013-11-01 06:57:00,
2013-11-01 02:58:00,79.4,73.1,29.95,SE,126,0.0,5.0,81,0.00,,FEW,0.00,0.00,VWS V14.01,2013-11-01 06:58:00,
2013-11-01 02:59:00,79.4,73.1,29.95,SE,133,3.0,5.0,81,0.00,,FEW,0.00,0.00,VWS V14.01,2013-11-01 06:59:00,
2013-11-01 03:00:00,79.4,73.1,29.94,SE,132,3.0,5.0,81,0.00,,FEW,0.00,0.00,VWS V14.01,2013-11-01 07:00:00,
2013-11-01 03:02:00,79.4,73.1,29.94,ESE,121,1.0,3.0,81,0.00,,FEW,0.00,0.00,VWS V14.01,2013-11-01 07:02:00,
2013-11-01 03:03:00,79.4,73.1,29.94,SE,142,2.0,3.0,81,0.00,,FEW,0.00,0.00,VWS V14.01,2013-11-01 07:03:00,
2013-11-01 03:04:00,79.4,73.1,29.94,SE,142,0.0,3.0,81,0.00,,FEW,0.00,0.00,VWS V14.01,2013-11-01 07:04:00,
2013-11-01 03:05:00,79.4,73.1,29.94,East,80,1.0,3.0,81,0.00,,FEW,0.00,0.00,VWS V14.01,2013-11-01 07:05:00,
2013-11-01 03:07:00,79.4,73.1,29.94,ESE,105,1.0,3.0,81,0.00,,FEW,0.00,0.00,VWS V14.01,2013-11-01 07:07:00,
2013-11-01 03:08:00,79.4,73.1,29.94,ESE,117,0.0,3.0,81,0.00,,FEW,0.00,0.00,VWS V14.01,2013-11-01 07:08:00,
2013-11-01 03:09:00,79.4,73.1,29.94,SE,132,3.0,3.0,81,0.00,,FEW,0.00,0.00,VWS V14.01,2013-11-01 07:09:00,
2013-11-01 03:10:00,79.4,73.1,29.94,SE,136,1.0,5.0,81,0.00,,FEW,0.00,0.00,VWS V14.01,2013-11-01 07:10:00,
2013-11-01 03:12:00,79.4,73.4,29.94,SE,128,4.0,5.0,82,0.00,,FEW,0.00,0.00,VWS V14.01,2013-11-01 07:12:00,
2013-11-01 03:13:00,79.4,73.1,29.94,SE,140,1.0,5.0,81,0.00,,FEW,0.00,0.00,VWS V14.01,2013-11-01 07:13:00,
2013-11-01 03:14:00,79.4,73.1,29.94,SE,140,4.0,5.0,81,0.00,,FEW,0.00,0.00,VWS V14.01,2013-11-01 07:14:00,
2013-11-01 03:15:00,79.3,73.0,29.94,SSE,148,2.0,5.0,81,0.00,,FEW,0.00,0.00,VWS V14.01,2013-11-01 07:15:00,
2013-11-01 03:17:00,79.3,73.0,29.94,ESE,111,1.0,5.0,81,0.00,,FEW,0.00,0.00,VWS V14.01,2013-11-01 07:17:00,
2013-11-01 03:18:00,79.3,73.0,29.94,ESE,120,2.0,5.0,81,0.00,,FEW,0.00,0.00,VWS V14.01,2013-11-01 07:18:00,
2013-11-01 03:19:00,79.3,73.0,29.94,ESE,122,2.0,7.0,81,0.00,,FEW,0.00,0.00,VWS V14.01,2013-11-01 07:19:00,
2013-11-01 03:20:00,79.3,73.0,29.94,ESE,121,1.0,7.0,81,0.00,,FEW,0.00,0.00,VWS V14.01,2013-11-01 07:20:00,
2013-11-01 03:22:00,79.3,73.0,29.94,SE,127,3.0,4.0,81,0.00,,FEW,0.00,0.00,VWS V14.01,2013-11-01 07:22:00,
2013-11-01 03:23:00,79.3,73.0,29.94,SE,127,0.0,4.0,81,0.00,,FEW,0.00,0.00,VWS V14.01,2013-11-01 07:23:00,
2013-11-01 03:24:00,79.3,73.0,29.94,SE,136,3.0,4.0,81,0.00,,FEW,0.00,0.00,VWS V14.01,2013-11-01 07:24:00,
2013-11-01 03:25:00,79.4,73.1,29.94,ESE,122,2.0,4.0,81,0.00,,FEW,0.00,0.00,VWS V14.01,2013-11-01 07:25:00,
2013-11-01 03:26:00,79.4,73.1,29.94,SE,130,1.0,4.0,81,0.00,,FEW,0.00,0.00,VWS V14.01,2013-11-01 07:26:00,
2013-11-01 03:28:00,79.4,73.1,29.94,ESE,119,2.0,4.0,81,0.00,,FEW,0.00,0.00,VWS V14.01,2013-11-01 07:28:00,
2013-11-01 03:29:00,79.4,73.4,29.94,SE,138,4.0,5.0,82,0.00,,FEW,0.00,0.00,VWS V14.01,2013-11-01 07:29:00,
2013-11-01 03:30:00,79.4,73.4,29.94,SE,126,1.0,5.0,82,0.00,,FEW,0.00,0.00,VWS V14.01,2013-11-01 07:30:00,
2013-11-01 03:31:00,79.4,73.4,29.94,SE,146,1.0,3.0,82,0.00,,FEW,0.00,0.00,VWS V14.01,2013-11-01 07:31:00,
2013-11-01 03:33:00,79.4,73.1,29.94,SE,146,2.0,6.0,81,0.00,,FEW,0.00,0.00,VWS V14.01,2013-11-01 07:33:00,
2013-11-01 03:34:00,79.3,73.0,29.94,SSE,151,3.0,6.0,81,0.00,,FEW,0.00,0.00,VWS V14.01,2013-11-01 07:34:00,
2013-11-01 03:35:00,79.3,73.0,29.94,SE,137,1.0,6.0,81,0.00,,FEW,0.00,0.00,VWS V14.01,2013-11-01 07:35:00,
2013-11-01 03:36:00,79.3,73.0,29.94,SE,132,1.0,6.0,81,0.00,,FEW,0.00,0.00,VWS V14.01,2013-11-01 07:36:00,
2013-11-01 03:38:00,79.3,73.0,29.94,East,92,0.0,6.0,81,0.00,,FEW,0.00,0.00,VWS V14.01,2013-11-01 07:38:00,
2013-11-01 03:39:00,79.3,73.0,29.94,SE,126,3.0,6.0,81,0.00,,FEW,0.00,0.00,VWS V14.01,2013-11-01 07:39:00,
2013-11-01 03:40:00,79.3,73.0,29.94,ESE,113,0.0,6.0,81,0.00,,FEW,0.00,0.00,VWS V14.01,2013-11-01 07:40:00,
2013-11-01 03:41:00,79.3,73.0,29.94,SE,134,1.0,3.0,81,0.00,,FEW,0.00,0.00,VWS V14.01,2013-11-01 07:41:00,
2013-11-01 03:43:00,79.3,73.0,29.94,SE,142,5.0,5.0,81,0.00,,FEW,0.00,0.00,VWS V14.01,2013-11-01 07:43:00,
2013-11-01 03:44:00,79.3,73.0,29.94,SE,132,1.0,5.0,81,0.00,,FEW,0.00,0.00,VWS V14.01,2013-11-01 07:44:00,
2013-11-01 03:45:00,79.3,73.0,29.94,SE,142,4.0,5.0,81,0.00,,FEW,0.00,0.00,VWS V14.01,2013-11-01 07:45:00,
2013-11-01 03:46:00,79.3,73.0,29.94,SE,126,2.0,5.0,81,0.00,,FEW,0.00,0.00,VWS V14.01,2013-11-01 07:46:00,
2013-11-01 03:48:00,79.3,73.0,29.94,SE,130,1.0,5.0,81,0.00,,FEW,0.00,0.00,VWS V14.01,2013-11-01 07:48:00,
2013-11-01 03:49:00,79.3,73.0,29.94,SE,130,1.0,5.0,81,0.00,,FEW,0.00,0.00,VWS V14.01,2013-11-01 07:49:00,
2013-11-01 03:50:00,79.3,73.0,29.94,SE,135,1.0,5.0,81,0.00,,FEW,0.00,0.00,VWS V14.01,2013-11-01 07:50:00,
2013-11-01 03:51:00,79.3,73.0,29.94,ESE,119,1.0,3.0,81,0.00,,FEW,0.00,0.00,VWS V14.01,2013-11-01 07:51:00,
2013-11-01 03:52:00,79.3,73.0,29.94,ESE,119,1.0,3.0,81,0.00,,FEW,0.00,0.00,VWS V14.01,2013-11-01 07:52:00,
2013-11-01 03:54:00,79.3,73.3,29.94,ESE,121,1.0,3.0,82,0.00,,FEW,0.00,0.00,VWS V14.01,2013-11-01 07:54:00,
2013-11-01 03:55:00,79.4,73.4,29.94,SSE,147,0.0,6.0,82,0.00,,FEW,0.00,0.00,VWS V14.01,2013-11-01 07:55:00,
2013-11-01 03:56:00,79.4,73.4,29.94,SSE,147,0.0,6.0,82,0.00,,FEW,0.00,0.00,VWS V14.01,2013-11-01 07:56:00,
2013-11-01 03:57:00,79.4,73.4,29.94,SE,143,2.0,6.0,82,0.00,,FEW,0.00,0.00,VWS V14.01,2013-11-01 07:57:00,
2013-11-01 03:59:00,79.4,73.4,29.94,SE,128,1.0,6.0,82,0.00,,FEW,0.00,0.00,VWS V14.01,2013-11-01 07:59:00,
2013-11-01 04:00:00,79.4,73.4,29.93,SE,134,0.0,6.0,82,0.00,,FEW,0.00,0.00,VWS V14.01,2013-11-01 08:00:00,
2013-11-01 04:01:00,79.4,73.4,29.93,SE,134,2.0,2.0,82,0.00,,FEW,0.00,0.00,VWS V14.01,2013-11-01 08:01:00,
2013-11-01 04:02:00,79.4,73.4,29.93,SE,134,1.0,2.0,82,0.00,,FEW,0.00,0.00,VWS V14.01,2013-11-01 08:02:00,
2013-11-01 04:04:00,79.4,73.4,29.93,ESE,119,2.0,5.0,82,0.00,,FEW,0.00,0.00,VWS V14.01,2013-11-01 08:04:00,
2013-11-01 04:05:00,79.4,73.4,29.93,ESE,113,2.0,5.0,82,0.00,,FEW,0.00,0.00,VWS V14.01,2013-11-01 08:05:00,
2013-11-01 04:07:00,79.3,73.3,29.93,SE,138,3.0,5.0,82,0.00,,FEW,0.00,0.00,VWS V14.01,2013-11-01 08:07:00,
2013-11-01 04:08:00,79.3,73.3,29.93,ESE,115,0.0,5.0,82,0.00,,FEW,0.00,0.00,VWS V14.01,2013-11-01 08:08:00,
2013-11-01 04:09:00,79.3,73.3,29.93,ESE,119,1.0,5.0,82,0.00,,FEW,0.00,0.00,VWS V14.01,2013-11-01 08:09:00,
2013-11-01 04:10:00,79.3,73.3,29.93,South,169,3.0,6.0,82,0.00,,FEW,0.00,0.00,VWS V14.01,2013-11-01 08:10:00,
2013-11-01 04:11:00,79.3,73.3,29.93,South,169,1.0,3.0,82,0.00,,FEW,0.00,0.00,VWS V14.01,2013-11-01 08:11:00,
2013-11-01 04:12:00,79.3,73.3,29.93,ESE,115,1.0,3.0,82,0.00,,FEW,0.00,0.00,VWS V14.01,2013-11-01 08:12:00,
2013-11-01 04:13:00,79.3,73.3,29.93,ESE,111,2.0,4.0,82,0.00,,FEW,0.00,0.00,VWS V14.01,2013-11-01 08:13:00,
2013-11-01 04:14:00,79.3,73.3,29.93,ESE,114,5.0,5.0,82,0.00,,FEW,0.00,0.00,VWS V14.01,2013-11-01 08:14:00,
2013-11-01 04:15:00,79.3,73.3,29.93,ESE,113,3.0,5.0,82,0.00,,FEW,0.00,0.00,VWS V14.01,2013-11-01 08:15:00,
2013-11-01 04:16:00,79.3,73.3,29.93,ESE,112,0.0,5.0,82,0.00,,FEW,0.00,0.00,VWS V14.01,2013-11-01 08:16:00,
2013-11-01 04:17:00,79.2,72.9,29.93,SE,139,1.0,5.0,81,0.00,,FEW,0.00,0.00,VWS V14.01,2013-11-01 08:17:00,
2013-11-01 04:18:00,79.2,72.9,29.93,ESE,119,2.0,5.0,81,0.00,,FEW,0.00,0.00,VWS V14.01,2013-11-01 08:18:00,
2013-11-01 04:20:00,79.2,72.9,29.93,SE,132,1.0,5.0,81,0.00,,FEW,0.00,0.00,VWS V14.01,2013-11-01 08:20:00,
2013-11-01 04:21:00,79.2,72.9,29.93,SE,134,5.0,5.0,81,0.00,,FEW,0.00,0.00,VWS V14.01,2013-11-01 08:21:00,
2013-11-01 04:22:00,79.2,72.9,29.93,SE,132,1.0,7.0,81,0.00,,FEW,0.00,0.00,VWS V14.01,2013-11-01 08:22:00,
2013-11-01 04:23:00,79.2,72.9,29.93,ESE,121,0.0,7.0,81,0.00,,FEW,0.00,0.00,VWS V14.01,2013-11-01 08:23:00,
2013-11-01 04:25:00,79.2,72.9,29.93,SE,130,5.0,7.0,81,0.00,,FEW,0.00,0.00,VWS V14.01,2013-11-01 08:25:00,
2013-11-01 04:26:00,79.3,73.0,29.93,ESE,117,2.0,7.0,81,0.00,,FEW,0.00,0.00,VWS V14.01,2013-11-01 08:26:00,
2013-11-01 04:27:00,79.3,73.0,29.93,ESE,117,1.0,7.0,81,0.00,,FEW,0.00,0.00,VWS V14.01,2013-11-01 08:27:00,
2013-11-01 04:29:00,79.3,73.0,29.93,SE,136,5.0,7.0,81,0.00,,FEW,0.00,0.00,VWS V14.01,2013-11-01 08:29:00,
2013-11-01 04:30:00,79.3,73.0,29.93,SE,144,1.0,7.0,81,0.00,,FEW,0.00,0.00,VWS V14.01,2013-11-01 08:30:00,
2013-11-01 04:31:00,79.3,73.0,29.93,SE,146,2.0,3.0,81,0.00,,FEW,0.00,0.00,VWS V14.01,2013-11-01 08:31:00,
2013-11-01 04:32:00,79.3,73.0,29.93,SE,126,3.0,4.0,81,0.00,,FEW,0.00,0.00,VWS V14.01,2013-11-01 08:32:00,
2013-11-01 04:34:00,79.3,73.0,29.93,SE,130,1.0,4.0,81,0.00,,FEW,0.00,0.00,VWS V14.01,2013-11-01 08:34:00,
2013-11-01 04:35:00,79.3,73.0,29.93,SE,126,0.0,4.0,81,0.00,,FEW,0.00,0.00,VWS V14.01,2013-11-01 08:35:00,
2013-11-01 04:36:00,79.3,73.0,29.93,SE,126,0.0,4.0,81,0.00,,FEW,0.00,0.00,VWS V14.01,2013-11-01 08:36:00,
2013-11-01 04:37:00,79.3,73.0,29.93,SE,141,1.0,4.0,81,0.00,,FEW,0.00,0.00,VWS V14.01,2013-11-01 08:37:00,
2013-11-01 04:39:00,79.3,73.0,29.93,SSE,153,1.0,4.0,81,0.00,,FEW,0.00,0.00,VWS V14.01,2013-11-01 08:39:00,
2013-11-01 04:40:00,79.2,72.9,29.93,SE,124,3.0,3.0,81,0.00,,FEW,0.00,0.00,VWS V14.01,2013-11-01 08:40:00,
2013-11-01 04:41:00,79.2,72.9,29.93,SE,133,3.0,3.0,81,0.00,,FEW,0.00,0.00,VWS V14.01,2013-11-01 08:41:00,
2013-11-01 04:42:00,79.2,72.9,29.93,ESE,120,1.0,4.0,81,0.00,,FEW,0.00,0.00,VWS V14.01,2013-11-01 08:42:00,
2013-11-01 04:44:00,79.2,72.9,29.93,SE,136,2.0,4.0,81,0.00,,FEW,0.00,0.00,VWS V14.01,2013-11-01 08:44:00,
2013-11-01 04:45:00,79.2,72.9,29.93,SE,131,3.0,7.0,81,0.00,,FEW,0.00,0.00,VWS V14.01,2013-11-01 08:45:00,
2013-11-01 04:46:00,79.2,72.9,29.93,ESE,113,2.0,7.0,81,0.00,,FEW,0.00,0.00,VWS V14.01,2013-11-01 08:46:00,
2013-11-01 04:47:00,79.2,72.9,29.93,SE,125,2.0,7.0,81,0.00,,FEW,0.00,0.00,VWS V14.01,2013-11-01 08:47:00,
2013-11-01 04:49:00,79.2,72.9,29.93,SE,130,2.0,7.0,81,0.00,,FEW,0.00,0.00,VWS V14.01,2013-11-01 08:49:00,
2013-11-01 04:51:00,79.2,72.9,29.93,SE,130,3.0,5.0,81,0.00,,FEW,0.00,0.00,VWS V14.01,2013-11-01 08:51:00,
2013-11-01 04:52:00,79.2,72.9,29.93,ESE,121,2.0,5.0,81,0.00,,FEW,0.00,0.00,VWS V14.01,2013-11-01 08:52:00,
2013-11-01 04:53:00,79.2,72.9,29.93,SE,132,2.0,5.0,81,0.00,,FEW,0.00,0.00,VWS V14.01,2013-11-01 08:53:00,
2013-11-01 04:54:00,79.3,73.0,29.93,ESE,122,2.0,5.0,81,0.00,,FEW,0.00,0.00,VWS V14.01,2013-11-01 08:54:00,
2013-11-01 04:56:00,79.3,73.0,29.93,ESE,123,1.0,5.0,81,0.00,,FEW,0.00,0.00,VWS V14.01,2013-11-01 08:56:00,
2013-11-01 04:57:00,79.3,73.0,29.93,East,83,2.0,5.0,81,0.00,,FEW,0.00,0.00,VWS V14.01,2013-11-01 08:57:00,
2013-11-01 04:58:00,79.3,73.0,29.93,ESE,119,2.0,5.0,81,0.00,,FEW,0.00,0.00,VWS V14.01,2013-11-01 08:58:00,
2013-11-01 04:59:00,79.3,73.0,29.93,SE,130,1.0,5.0,81,0.00,,FEW,0.00,0.00,VWS V14.01,2013-11-01 08:59:00,
2013-11-01 05:01:00,79.3,73.3,29.93,SE,131,1.0,2.0,82,0.00,,FEW,0.00,0.00,VWS V14.01,2013-11-01 09:01:00,
2013-11-01 05:02:00,79.4,73.4,29.93,SE,132,1.0,3.0,82,0.00,,FEW,0.00,0.00,VWS V14.01,2013-11-01 09:02:00,
2013-11-01 05:03:00,79.4,73.4,29.93,SE,132,0.0,3.0,82,0.00,,FEW,0.00,0.00,VWS V14.01,2013-11-01 09:03:00,
2013-11-01 05:04:00,79.4,73.4,29.93,SE,131,0.0,3.0,82,0.00,,FEW,0.00,0.00,VWS V14.01,2013-11-01 09:04:00,
2013-11-01 05:06:00,79.4,73.4,29.93,ESE,123,1.0,5.0,82,0.00,,FEW,0.00,0.00,VWS V14.01,2013-11-01 09:06:00,
2013-11-01 05:07:00,79.4,73.4,29.93,SE,128,5.0,5.0,82,0.00,,FEW,0.00,0.00,VWS V14.01,2013-11-01 09:07:00,
2013-11-01 05:08:00,79.4,73.4,29.93,SE,136,4.0,7.0,82,0.00,,FEW,0.00,0.00,VWS V14.01,2013-11-01 09:08:00,
2013-11-01 05:09:00,79.4,73.4,29.93,SSE,153,2.0,7.0,82,0.00,,FEW,0.00,0.00,VWS V14.01,2013-11-01 09:09:00,
2013-11-01 05:11:00,79.4,73.4,29.93,SE,127,2.0,4.0,82,0.00,,FEW,0.00,0.00,VWS V14.01,2013-11-01 09:11:00,
2013-11-01 05:12:00,79.4,73.4,29.93,SE,145,3.0,4.0,82,0.00,,FEW,0.00,0.00,VWS V14.01,2013-11-01 09:12:00,
2013-11-01 05:13:00,79.4,73.4,29.93,SSE,163,1.0,4.0,82,0.00,,FEW,0.00,0.00,VWS V14.01,2013-11-01 09:13:00,
2013-11-01 05:15:00,79.3,73.3,29.93,SE,137,2.0,4.0,82,0.00,,FEW,0.00,0.00,VWS V14.01,2013-11-01 09:15:00,
2013-11-01 05:16:00,79.3,73.3,29.93,ESE,117,2.0,4.0,82,0.00,,FEW,0.00,0.00,VWS V14.01,2013-11-01 09:16:00,
2013-11-01 05:17:00,79.3,73.3,29.93,ESE,112,1.0,4.0,82,0.00,,FEW,0.00,0.00,VWS V14.01,2013-11-01 09:17:00,
2013-11-01 05:18:00,79.3,73.3,29.93,SE,132,0.0,4.0,82,0.00,,FEW,0.00,0.00,VWS V14.01,2013-11-01 09:18:00,
2013-11-01 05:19:00,79.3,73.3,29.93,SE,132,0.0,4.0,82,0.00,,FEW,0.00,0.00,VWS V14.01,2013-11-01 09:19:00,
2013-11-01 05:20:00,79.2,73.2,29.93,SE,145,1.0,1.0,82,0.00,,FEW,0.00,0.00,VWS V14.01,2013-11-01 09:20:00,
2013-11-01 05:22:00,79.2,73.2,29.93,SE,130,4.0,5.0,82,0.00,,FEW,0.00,0.00,VWS V14.01,2013-11-01 09:22:00,
2013-11-01 05:24:00,79.2,73.2,29.93,SE,128,1.0,5.0,82,0.00,,FEW,0.00,0.00,VWS V14.01,2013-11-01 09:24:00,
2013-11-01 05:26:00,79.1,73.1,29.93,SE,134,2.0,5.0,82,0.00,,FEW,0.00,0.00,VWS V14.01,2013-11-01 09:26:00,
2013-11-01 05:27:00,79.1,73.1,29.93,SE,128,2.0,5.0,82,0.00,,FEW,0.00,0.00,VWS V14.01,2013-11-01 09:27:00,
2013-11-01 05:28:00,79.2,73.2,29.93,SSE,150,3.0,5.0,82,0.00,,FEW,0.00,0.00,VWS V14.01,2013-11-01 09:28:00,
2013-11-01 05:29:00,79.1,73.1,29.93,SE,131,3.0,5.0,82,0.00,,FEW,0.00,0.00,VWS V14.01,2013-11-01 09:29:00,
2013-11-01 05:31:00,79.1,73.1,29.94,ESE,117,1.0,2.0,82,0.00,,FEW,0.00,0.00,VWS V14.01,2013-11-01 09:31:00,
2013-11-01 05:32:00,79.1,73.1,29.94,SE,130,2.0,3.0,82,0.00,,FEW,0.00,0.00,VWS V14.01,2013-11-01 09:32:00,
2013-11-01 05:34:00,79.1,73.1,29.94,SE,137,3.0,3.0,82,0.00,,FEW,0.00,0.00,VWS V14.01,2013-11-01 09:34:00,
2013-11-01 05:37:00,79.1,73.1,29.94,SE,138,2.0,3.0,82,0.00,,FEW,0.00,0.00,VWS V14.01,2013-11-01 09:37:00,
2013-11-01 05:38:00,79.0,73.0,29.94,East,92,1.0,3.0,82,0.00,,FEW,0.00,0.00,VWS V14.01,2013-11-01 09:38:00,
2013-11-01 05:39:00,79.1,73.1,29.94,ESE,117,2.0,3.0,82,0.00,,FEW,0.00,0.00,VWS V14.01,2013-11-01 09:39:00,
2013-11-01 05:42:00,79.0,72.7,29.94,SE,128,0.0,3.0,81,0.00,,FEW,0.00,0.00,VWS V14.01,2013-11-01 09:42:00,
2013-11-01 05:44:00,79.0,72.7,29.94,SE,141,1.0,3.0,81,0.00,,FEW,0.00,0.00,VWS V14.01,2013-11-01 09:44:00,
2013-11-01 05:45:00,79.0,72.7,29.94,SE,129,1.0,3.0,81,0.00,,FEW,0.00,0.00,VWS V14.01,2013-11-01 09:45:00,
2013-11-01 05:47:00,79.0,72.7,29.94,SE,142,1.0,3.0,81,0.00,,FEW,0.00,0.00,VWS V14.01,2013-11-01 09:47:00,
2013-11-01 05:49:00,78.9,72.6,29.94,SE,136,0.0,4.0,81,0.00,,FEW,0.00,0.00,VWS V14.01,2013-11-01 09:49:00,
2013-11-01 05:50:00,78.9,72.6,29.94,ESE,107,1.0,2.0,81,0.00,,FEW,0.00,0.00,VWS V14.01,2013-11-01 09:50:00,
2013-11-01 05:52:00,78.9,72.6,29.94,ESE,115,1.0,3.0,81,0.00,,FEW,0.00,0.00,VWS V14.01,2013-11-01 09:52:00,
2013-11-01 05:54:00,78.9,72.6,29.94,SE,134,2.0,4.0,81,0.00,,FEW,0.00,0.00,VWS V14.01,2013-11-01 09:54:00,
2013-11-01 05:56:00,78.9,72.6,29.94,SE,143,2.0,7.0,81,0.00,,FEW,0.00,0.00,VWS V14.01,2013-11-01 09:56:00,
2013-11-01 05:57:00,78.9,72.6,29.94,SSE,155,2.0,7.0,81,0.00,,FEW,0.00,0.00,VWS V14.01,2013-11-01 09:57:00,
2013-11-01 05:59:00,78.8,72.5,29.94,ESE,122,1.0,7.0,81,0.00,,FEW,0.00,0.00,VWS V14.01,2013-11-01 09:59:00,
2013-11-01 06:00:00,78.9,72.6,29.94,ESE,122,0.0,7.0,81,0.00,,FEW,0.00,0.00,VWS V14.01,2013-11-01 10:00:00,
2013-11-01 06:01:00,78.9,72.6,29.94,SE,130,2.0,2.0,81,0.00,,FEW,0.00,0.00,VWS V14.01,2013-11-01 10:01:00,
2013-11-01 06:02:00,78.9,72.6,29.94,ESE,119,3.0,3.0,81,0.00,,FEW,0.00,0.00,VWS V14.01,2013-11-01 10:02:00,
2013-11-01 06:04:00,78.9,72.6,29.94,SSE,148,4.0,5.0,81,0.00,,FEW,0.00,0.00,VWS V14.01,2013-11-01 10:04:00,
2013-11-01 06:05:00,78.9,72.6,29.94,SE,146,0.0,5.0,81,0.00,,FEW,0.00,0.00,VWS V14.01,2013-11-01 10:05:00,
2013-11-01 06:06:00,78.9,72.2,29.94,ESE,110,1.0,5.0,80,0.00,,FEW,0.00,0.00,VWS V14.01,2013-11-01 10:06:00,
2013-11-01 06:07:00,78.9,72.6,29.94,ESE,122,2.0,5.0,81,0.00,,FEW,0.00,0.00,VWS V14.01,2013-11-01 10:07:00,
2013-11-01 06:09:00,78.9,72.2,29.94,ESE,121,0.0,5.0,80,0.00,,FEW,0.00,0.00,VWS V14.01,2013-11-01 10:09:00,
2013-11-01 06:10:00,78.9,72.2,29.94,ESE,121,0.0,5.0,80,0.00,,FEW,0.00,0.00,VWS V14.01,2013-11-01 10:10:00,
2013-11-01 06:11:00,79.0,72.3,29.94,SSE,148,2.0,6.0,80,0.00,,FEW,0.00,0.00,VWS V14.01,2013-11-01 10:11:00,
2013-11-01 06:12:00,79.0,72.3,29.94,ESE,121,1.0,6.0,80,0.00,,FEW,0.00,0.00,VWS V14.01,2013-11-01 10:12:00,
2013-11-01 06:13:00,78.9,72.2,29.94,SSE,153,2.0,6.0,80,0.00,,FEW,0.00,0.00,VWS V14.01,2013-11-01 10:13:00,
2013-11-01 06:15:00,79.0,72.3,29.94,SE,132,1.0,6.0,80,0.00,,FEW,0.00,0.00,VWS V14.01,2013-11-01 10:15:00,
2013-11-01 06:16:00,79.0,72.3,29.94,SE,134,1.0,6.0,80,0.00,,FEW,0.00,0.00,VWS V14.01,2013-11-01 10:16:00,
2013-11-01 06:17:00,79.0,72.3,29.94,ESE,121,3.0,6.0,80,0.00,,FEW,0.00,0.00,VWS V14.01,2013-11-01 10:17:00,
2013-11-01 06:18:00,79.0,72.3,29.94,ESE,121,1.0,6.0,80,0.00,,FEW,0.00,0.00,VWS V14.01,2013-11-01 10:18:00,
2013-11-01 06:20:00,79.0,72.3,29.94,SE,138,1.0,6.0,80,0.00,,FEW,0.00,0.00,VWS V14.01,2013-11-01 10:20:00,
2013-11-01 06:21:00,79.0,72.3,29.94,ESE,121,1.0,3.0,80,0.00,,FEW,0.00,0.00,VWS V14.01,2013-11-01 10:21:00,
2013-11-01 06:22:00,79.0,72.3,29.94,SE,127,1.0,4.0,80,0.00,,FEW,0.00,0.00,VWS V14.01,2013-11-01 10:22:00,
2013-11-01 06:23:00,78.9,72.2,29.94,ESE,108,1.0,4.0,80,0.00,,FEW,0.00,0.00,VWS V14.01,2013-11-01 10:23:00,
2013-11-01 06:25:00,78.9,72.2,29.94,ESE,109,0.0,4.0,80,0.00,,FEW,0.00,0.00,VWS V14.01,2013-11-01 10:25:00,
2013-11-01 06:26:00,78.9,72.2,29.94,SE,132,2.0,4.0,80,0.00,,FEW,0.00,0.00,VWS V14.01,2013-11-01 10:26:00,
2013-11-01 06:27:00,78.9,72.2,29.94,SE,130,1.0,4.0,80,0.00,,FEW,0.00,0.00,VWS V14.01,2013-11-01 10:27:00,
2013-11-01 06:28:00,78.9,72.2,29.94,ESE,117,2.0,4.0,80,0.00,,FEW,0.00,0.00,VWS V14.01,2013-11-01 10:28:00,
2013-11-01 06:30:00,78.9,72.2,29.94,SE,136,1.0,4.0,80,0.00,,FEW,0.00,0.00,VWS V14.01,2013-11-01 10:30:00,
2013-11-01 06:31:00,78.9,72.2,29.94,SE,134,1.0,3.0,80,0.00,,FEW,0.00,0.00,VWS V14.01,2013-11-01 10:31:00,
2013-11-01 06:32:00,78.9,72.2,29.94,SE,137,0.0,3.0,80,0.00,,FEW,0.00,0.00,VWS V14.01,2013-11-01 10:32:00,
2013-11-01 06:33:00,78.9,72.2,29.94,ESE,122,1.0,4.0,80,0.00,,FEW,0.00,0.00,VWS V14.01,2013-11-01 10:33:00,
2013-11-01 06:34:00,78.9,72.2,29.94,ESE,115,1.0,4.0,80,0.00,,FEW,0.00,0.00,VWS V14.01,2013-11-01 10:34:00,
2013-11-01 06:35:00,78.9,72.2,29.94,ESE,115,0.0,4.0,80,0.00,,FEW,0.00,0.00,VWS V14.01,2013-11-01 10:35:00,
2013-11-01 06:36:00,78.9,72.2,29.94,ESE,115,1.0,4.0,80,0.00,,FEW,0.00,0.00,VWS V14.01,2013-11-01 10:36:00,
2013-11-01 06:37:00,78.9,72.2,29.94,SE,138,2.0,6.0,80,0.00,,FEW,0.00,0.00,VWS V14.01,2013-11-01 10:37:00,
2013-11-01 06:38:00,78.9,72.2,29.94,SE,142,4.0,6.0,80,0.00,,FEW,0.00,0.00,VWS V14.01,2013-11-01 10:38:00,
2013-11-01 06:40:00,79.0,72.3,29.94,SE,130,1.0,6.0,80,0.00,,FEW,0.00,0.00,VWS V14.01,2013-11-01 10:40:00,
2013-11-01 06:41:00,79.0,72.3,29.94,SE,130,2.0,2.0,80,0.00,,FEW,0.00,0.00,VWS V14.01,2013-11-01 10:41:00,
2013-11-01 06:42:00,79.0,72.3,29.94,SE,129,0.0,2.0,80,0.00,,FEW,0.00,0.00,VWS V14.01,2013-11-01 10:42:00,
2013-11-01 06:43:00,79.0,72.3,29.94,SE,129,1.0,2.0,80,0.00,,FEW,0.00,0.00,VWS V14.01,2013-11-01 10:43:00,
2013-11-01 06:45:00,79.0,72.3,29.94,SE,126,2.0,4.0,80,0.00,,FEW,0.00,0.00,VWS V14.01,2013-11-01 10:45:00,
2013-11-01 06:46:00,79.0,72.3,29.94,ESE,123,0.0,4.0,80,0.00,,FEW,0.00,0.00,VWS V14.01,2013-11-01 10:46:00,
2013-11-01 06:48:00,79.0,72.3,29.94,ESE,123,1.0,4.0,80,0.00,,FEW,0.00,0.00,VWS V14.01,2013-11-01 10:48:00,
2013-11-01 06:50:00,79.0,72.3,29.94,SE,133,2.0,4.0,80,0.00,,FEW,0.00,0.00,VWS V14.01,2013-11-01 10:50:00,
2013-11-01 06:51:00,78.9,72.2,29.94,SE,125,0.0,2.0,80,0.00,,FEW,0.00,0.00,VWS V14.01,2013-11-01 10:51:00,
2013-11-01 06:53:00,78.9,72.2,29.94,SE,130,1.0,3.0,80,0.00,,FEW,0.00,0.00,VWS V14.01,2013-11-01 10:53:00,
2013-11-01 06:55:00,78.9,72.2,29.94,SE,131,1.0,3.0,80,0.00,,FEW,0.00,0.00,VWS V14.01,2013-11-01 10:55:00,
2013-11-01 06:56:00,78.9,72.2,29.94,SE,131,0.0,3.0,80,0.00,,FEW,0.00,0.00,VWS V14.01,2013-11-01 10:56:00,
2013-11-01 06:58:00,78.9,72.2,29.94,SE,131,2.0,3.0,80,0.00,,FEW,0.00,0.00,VWS V14.01,2013-11-01 10:58:00,
2013-11-01 07:00:00,78.9,72.2,29.95,SE,132,1.0,2.0,80,0.00,,FEW,0.00,0.00,VWS V14.01,2013-11-01 11:00:00,
2013-11-01 07:01:00,78.9,72.2,29.95,SE,132,2.0,3.0,80,0.00,,FEW,0.00,0.00,VWS V14.01,2013-11-01 11:01:00,
2013-11-01 07:03:00,78.9,72.2,29.95,SE,145,3.0,3.0,80,0.00,,FEW,0.00,0.00,VWS V14.01,2013-11-01 11:03:00,
2013-11-01 07:05:00,78.9,72.2,29.95,SE,140,1.0,6.0,80,0.00,,FEW,0.00,0.00,VWS V14.01,2013-11-01 11:05:00,
2013-11-01 07:06:00,78.9,72.2,29.95,SE,144,1.0,6.0,80,0.00,,FEW,0.00,0.00,VWS V14.01,2013-11-01 11:06:00,
2013-11-01 07:08:00,78.9,72.2,29.95,ESE,117,0.0,6.0,80,0.00,,FEW,0.00,0.00,VWS V14.01,2013-11-01 11:08:00,
2013-11-01 07:10:00,78.9,72.2,29.95,ESE,120,2.0,6.0,80,0.00,,FEW,0.00,0.00,VWS V14.01,2013-11-01 11:10:00,
2013-11-01 07:11:00,78.9,72.2,29.95,SE,129,3.0,4.0,80,0.00,,FEW,0.00,0.00,VWS V14.01,2013-11-01 11:11:00,
2013-11-01 07:12:00,78.9,72.2,29.95,SE,137,2.0,4.0,80,0.00,,FEW,0.00,0.00,VWS V14.01,2013-11-01 11:12:00,
2013-11-01 07:13:00,78.9,72.2,29.95,SE,138,0.0,4.0,80,0.00,,FEW,0.00,0.00,VWS V14.01,2013-11-01 11:13:00,
2013-11-01 07:14:00,78.9,72.2,29.95,SE,138,2.0,4.0,80,0.00,,FEW,0.00,0.00,VWS V14.01,2013-11-01 11:14:00,
2013-11-01 07:15:00,78.9,72.2,29.96,SE,138,1.0,4.0,80,0.00,,FEW,0.00,0.00,VWS V14.01,2013-11-01 11:15:00,
2013-11-01 07:16:00,79.0,72.3,29.96,SE,137,2.0,4.0,80,0.00,,FEW,0.00,0.00,VWS V14.01,2013-11-01 11:16:00,
2013-11-01 07:17:00,79.0,72.3,29.96,SE,129,2.0,4.0,80,0.00,,FEW,0.00,0.00,VWS V14.01,2013-11-01 11:17:00,
2013-11-01 07:18:00,79.0,72.3,29.96,SE,127,1.0,4.0,80,0.00,,FEW,0.00,0.00,VWS V14.01,2013-11-01 11:18:00,
2013-11-01 07:19:00,79.0,72.3,29.96,SE,127,1.0,4.0,80,0.00,,FEW,0.00,0.00,VWS V14.01,2013-11-01 11:19:00,
2013-11-01 07:20:00,79.0,72.3,29.96,SE,127,1.0,4.0,80,0.00,,FEW,0.00,0.00,VWS V14.01,2013-11-01 11:20:00,
2013-11-01 07:21:00,79.0,72.3,29.96,SE,127,0.0,2.0,80,0.00,,FEW,0.00,0.00,VWS V14.01,2013-11-01 11:21:00,
2013-11-01 07:22:00,79.0,72.3,29.96,SE,127,0.0,2.0,80,0.00,,FEW,0.00,0.00,VWS V14.01,2013-11-01 11:22:00,
2013-11-01 07:23:00,79.0,72.3,29.96,SE,127,0.0,2.0,80,0.00,,FEW,0.00,0.00,VWS V14.01,2013-11-01 11:23:00,
2013-11-01 07:24:00,79.0,72.3,29.96,SE,127,0.0,2.0,80,0.00,,FEW,0.00,0.00,VWS V14.01,2013-11-01 11:24:00,
2013-11-01 07:25:00,78.9,72.6,29.96,SE,127,0.0,2.0,81,0.00,,FEW,0.00,0.00,VWS V14.01,2013-11-01 11:25:00,
2013-11-01 07:26:00,78.9,72.6,29.96,SE,127,0.0,2.0,81,0.00,,FEW,0.00,0.00,VWS V14.01,2013-11-01 11:26:00,
2013-11-01 07:27:00,78.9,72.6,29.96,SE,127,0.0,2.0,81,0.00,,FEW,0.00,0.00,VWS V14.01,2013-11-01 11:27:00,
2013-11-01 07:28:00,78.9,72.6,29.96,SE,127,0.0,2.0,81,0.00,,FEW,0.00,0.00,VWS V14.01,2013-11-01 11:28:00,
2013-11-01 07:29:00,78.9,72.6,29.96,SE,127,1.0,2.0,81,0.00,,FEW,0.00,0.00,VWS V14.01,2013-11-01 11:29:00,
2013-11-01 07:30:00,78.9,72.6,29.96,SE,127,0.0,2.0,81,0.00,,FEW,0.00,0.00,VWS V14.01,2013-11-01 11:30:00,
2013-11-01 07:31:00,78.9,72.6,29.96,ESE,122,2.0,3.0,81,0.00,,FEW,0.00,0.00,VWS V14.01,2013-11-01 11:31:00,
2013-11-01 07:32:00,78.9,72.6,29.96,ESE,122,2.0,3.0,81,0.00,,FEW,0.00,0.00,VWS V14.01,2013-11-01 11:32:00,
2013-11-01 07:33:00,78.9,72.6,29.96,ESE,119,0.0,3.0,81,0.00,,FEW,0.00,0.00,VWS V14.01,2013-11-01 11:33:00,
2013-11-01 07:34:00,78.9,72.6,29.96,ESE,123,3.0,3.0,81,0.00,,FEW,0.00,0.00,VWS V14.01,2013-11-01 11:34:00,
2013-11-01 07:35:00,78.9,72.6,29.96,SE,128,1.0,3.0,81,0.00,,FEW,0.00,0.00,VWS V14.01,2013-11-01 11:35:00,
2013-11-01 07:37:00,78.9,72.6,29.96,SE,129,0.0,3.0,81,0.00,,FEW,0.00,5.00,VWS V14.01,2013-11-01 11:37:00,
2013-11-01 07:39:00,78.9,72.6,29.96,SE,130,0.0,3.0,81,0.00,,FEW,0.00,5.00,VWS V14.01,2013-11-01 11:39:00,
2013-11-01 07:40:00,78.9,72.6,29.96,SE,129,1.0,3.0,81,0.00,,FEW,0.00,7.00,VWS V14.01,2013-11-01 11:40:00,
2013-11-01 07:41:00,78.9,72.6,29.96,SE,130,1.0,1.0,81,0.00,,FEW,0.00,7.00,VWS V14.01,2013-11-01 11:41:00,
2013-11-01 07:42:00,78.9,72.6,29.96,SE,130,0.0,1.0,81,0.00,,FEW,0.00,7.00,VWS V14.01,2013-11-01 11:42:00,
2013-11-01 07:44:00,78.9,72.9,29.96,SE,133,1.0,2.0,82,0.00,,FEW,0.00,9.00,VWS V14.01,2013-11-01 11:44:00,
2013-11-01 07:45:00,78.9,72.9,29.96,SE,132,2.0,3.0,82,0.00,,FEW,0.00,9.00,VWS V14.01,2013-11-01 11:45:00,
2013-11-01 07:46:00,78.9,72.9,29.96,SE,132,2.0,3.0,82,0.00,,FEW,0.00,9.00,VWS V14.01,2013-11-01 11:46:00,
2013-11-01 07:47:00,78.8,72.8,29.96,SE,132,1.0,3.0,82,0.00,,FEW,0.00,9.00,VWS V14.01,2013-11-01 11:47:00,
2013-11-01 07:49:00,78.8,72.8,29.96,SE,132,1.0,3.0,82,0.00,,FEW,0.00,11.00,VWS V14.01,2013-11-01 11:49:00,
2013-11-01 07:50:00,78.8,72.8,29.96,SE,132,2.0,3.0,82,0.00,,FEW,0.00,11.00,VWS V14.01,2013-11-01 11:50:00,
2013-11-01 07:51:00,78.8,72.8,29.96,SE,132,2.0,2.0,82,0.00,,FEW,0.00,12.00,VWS V14.01,2013-11-01 11:51:00,
2013-11-01 07:52:00,78.8,72.8,29.96,SE,132,0.0,2.0,82,0.00,,FEW,0.00,12.00,VWS V14.01,2013-11-01 11:52:00,
2013-11-01 07:54:00,78.8,72.8,29.96,SE,132,0.0,2.0,82,0.00,,FEW,0.00,14.00,VWS V14.01,2013-11-01 11:54:00,
2013-11-01 07:55:00,78.8,72.8,29.96,SE,132,0.0,2.0,82,0.00,,FEW,0.00,16.00,VWS V14.01,2013-11-01 11:55:00,
2013-11-01 07:56:00,78.8,72.8,29.96,SE,132,0.0,2.0,82,0.00,,FEW,0.00,18.00,VWS V14.01,2013-11-01 11:56:00,
2013-11-01 07:57:00,78.8,72.8,29.96,SE,132,0.0,2.0,82,0.00,,FEW,0.00,19.00,VWS V14.01,2013-11-01 11:57:00,
2013-11-01 07:59:00,78.8,72.8,29.97,SE,132,2.0,2.0,82,0.00,,FEW,0.00,19.00,VWS V14.01,2013-11-01 11:59:00,
2013-11-01 08:00:00,78.8,72.8,29.97,SE,132,0.0,2.0,82,0.00,,FEW,0.00,19.00,VWS V14.01,2013-11-01 12:00:00,
2013-11-01 08:01:00,78.8,72.8,29.97,SE,132,0.0,0.0,82,0.00,,FEW,0.00,19.00,VWS V14.01,2013-11-01 12:01:00,
2013-11-01 08:02:00,78.8,72.8,29.97,SE,132,2.0,2.0,82,0.00,,FEW,0.00,19.00,VWS V14.01,2013-11-01 12:02:00,
2013-11-01 08:03:00,78.8,72.8,29.97,SE,132,1.0,2.0,82,0.00,,FEW,0.00,19.00,VWS V14.01,2013-11-01 12:03:00,
2013-11-01 08:05:00,78.8,72.8,29.97,SE,132,1.0,2.0,82,0.00,,FEW,0.00,19.00,VWS V14.01,2013-11-01 12:05:00,
2013-11-01 08:06:00,78.8,72.8,29.97,SE,136,3.0,3.0,82,0.00,,FEW,0.00,21.00,VWS V14.01,2013-11-01 12:06:00,
2013-11-01 08:07:00,78.8,72.8,29.97,SE,138,2.0,4.0,82,0.00,,FEW,0.00,23.00,VWS V14.01,2013-11-01 12:07:00,
2013-11-01 08:08:00,78.9,72.9,29.97,SE,135,2.0,4.0,82,0.00,,FEW,0.00,23.00,VWS V14.01,2013-11-01 12:08:00,
2013-11-01 08:10:00,78.9,72.9,29.97,ESE,120,2.0,4.0,82,0.00,,FEW,0.00,21.00,VWS V14.01,2013-11-01 12:10:00,
2013-11-01 08:11:00,78.9,72.9,29.97,SE,142,0.0,5.0,82,0.00,,FEW,0.00,21.00,VWS V14.01,2013-11-01 12:11:00,
2013-11-01 08:12:00,78.9,72.9,29.97,SSE,148,2.0,5.0,82,0.00,,FEW,0.00,23.00,VWS V14.01,2013-11-01 12:12:00,
2013-11-01 08:13:00,78.9,72.9,29.97,SE,142,1.0,5.0,82,0.00,,FEW,0.00,25.00,VWS V14.01,2013-11-01 12:13:00,
2013-11-01 08:15:00,78.9,72.9,29.97,SE,142,1.0,5.0,82,0.00,,FEW,0.00,28.00,VWS V14.01,2013-11-01 12:15:00,
2013-11-01 08:16:00,78.9,72.9,29.97,SE,142,0.0,5.0,82,0.00,,FEW,0.00,28.00,VWS V14.01,2013-11-01 12:16:00,
2013-11-01 08:17:00,78.9,72.9,29.97,SE,142,1.0,5.0,82,0.00,,FEW,0.00,30.00,VWS V14.01,2013-11-01 12:17:00,
2013-11-01 08:18:00,78.9,72.9,29.97,SE,146,3.0,5.0,82,0.00,,FEW,0.00,39.00,VWS V14.01,2013-11-01 12:18:00,
2013-11-01 08:20:00,79.0,73.0,29.97,SSE,147,2.0,2.0,82,0.00,,FEW,0.00,53.00,VWS V14.01,2013-11-01 12:20:00,
2013-11-01 08:21:00,79.0,73.0,29.97,SSE,147,0.0,2.0,82,0.00,,FEW,0.00,53.00,VWS V14.01,2013-11-01 12:21:00,
2013-11-01 08:23:00,79.1,73.1,29.97,SE,143,2.0,3.0,82,0.00,,FEW,0.00,49.00,VWS V14.01,2013-11-01 12:23:00,
2013-11-01 08:25:00,79.1,73.1,29.97,SSE,147,1.0,3.0,82,0.00,,FEW,0.00,104.00,VWS V14.01,2013-11-01 12:25:00,
2013-11-01 08:26:00,79.1,73.1,29.97,SSE,147,1.0,3.0,82,0.00,,FEW,0.00,118.00,VWS V14.01,2013-11-01 12:26:00,
2013-11-01 08:27:00,79.1,73.1,29.97,SE,143,1.0,3.0,82,0.00,,FEW,0.00,125.00,VWS V14.01,2013-11-01 12:27:00,
2013-11-01 08:28:00,79.2,73.6,29.97,SSE,147,2.0,3.0,83,0.00,,FEW,0.00,128.00,VWS V14.01,2013-11-01 12:28:00,
2013-11-01 08:29:00,79.2,73.6,29.97,SSE,147,2.0,3.0,83,0.00,,FEW,0.00,127.00,VWS V14.01,2013-11-01 12:29:00,
2013-11-01 08:30:00,79.3,73.7,29.97,SSE,150,0.0,1.0,83,0.00,,FEW,0.00,95.00,VWS V14.01,2013-11-01 12:30:00,
2013-11-01 08:31:00,79.3,73.3,29.97,SSE,150,1.0,3.0,82,0.00,,FEW,0.00,72.00,VWS V14.01,2013-11-01 12:31:00,
2013-11-01 08:32:00,79.4,73.4,29.97,SSE,150,1.0,3.0,82,0.00,,FEW,0.00,135.00,VWS V14.01,2013-11-01 12:32:00,
2013-11-01 08:33:00,79.4,73.4,29.97,South,171,0.0,3.0,82,0.00,,FEW,0.00,54.00,VWS V14.01,2013-11-01 12:33:00,
2013-11-01 08:34:00,79.4,73.4,29.97,South,171,1.0,3.0,82,0.00,,FEW,0.00,54.00,VWS V14.01,2013-11-01 12:34:00,
2013-11-01 08:35:00,79.5,73.5,29.97,SE,132,0.0,3.0,82,0.00,,FEW,0.00,79.00,VWS V14.01,2013-11-01 12:35:00,
2013-11-01 08:36:00,79.5,73.5,29.97,SE,139,3.0,3.0,82,0.00,,FEW,0.00,130.00,VWS V14.01,2013-11-01 12:36:00,
2013-11-01 08:37:00,79.5,73.5,29.97,SSE,147,0.0,3.0,82,0.00,,FEW,0.00,130.00,VWS V14.01,2013-11-01 12:37:00,
2013-11-01 08:38:00,79.6,73.6,29.97,SSE,147,0.0,3.0,82,0.00,,FEW,0.00,174.00,VWS V14.01,2013-11-01 12:38:00,
2013-11-01 08:39:00,79.6,73.6,29.97,SSE,147,0.0,3.0,82,0.00,,FEW,0.00,179.00,VWS V14.01,2013-11-01 12:39:00,
2013-11-01 08:40:00,79.6,73.6,29.97,SSE,147,1.0,3.0,82,0.00,,FEW,0.00,179.00,VWS V14.01,2013-11-01 12:40:00,
2013-11-01 08:41:00,79.8,73.8,29.97,SE,144,0.0,3.0,82,0.00,,FEW,0.00,193.00,VWS V14.01,2013-11-01 12:41:00,
2013-11-01 08:42:00,79.8,73.8,29.97,SE,144,0.0,3.0,82,0.00,,FEW,0.00,206.00,VWS V14.01,2013-11-01 12:42:00,
2013-11-01 08:43:00,80.1,73.8,29.97,SE,144,1.0,3.0,81,0.00,,FEW,0.00,214.00,VWS V14.01,2013-11-01 12:43:00,
2013-11-01 08:44:00,80.2,73.8,29.98,SSE,148,2.0,3.0,81,0.00,,FEW,0.00,211.00,VWS V14.01,2013-11-01 12:44:00,
2013-11-01 08:45:00,80.3,73.9,29.98,SE,142,1.0,4.0,81,0.00,,FEW,0.00,244.00,VWS V14.01,2013-11-01 12:45:00,
2013-11-01 08:47:00,80.5,73.8,29.98,SSE,153,1.0,4.0,80,0.00,,FEW,0.00,213.00,VWS V14.01,2013-11-01 12:47:00,
2013-11-01 08:49:00,80.7,74.0,29.98,SSE,156,0.0,4.0,80,0.00,,FEW,0.00,158.00,VWS V14.01,2013-11-01 12:49:00,
2013-11-01 08:50:00,80.8,73.7,29.98,SSE,156,1.0,4.0,79,0.00,,FEW,0.00,100.00,VWS V14.01,2013-11-01 12:50:00,
2013-11-01 08:51:00,80.8,73.7,29.98,SSE,156,1.0,2.0,79,0.00,,FEW,0.00,97.00,VWS V14.01,2013-11-01 12:51:00,
2013-11-01 08:53:00,80.8,73.7,29.98,SSE,156,2.0,2.0,79,0.00,,FEW,0.00,97.00,VWS V14.01,2013-11-01 12:53:00,
2013-11-01 08:54:00,80.7,73.6,29.98,SSE,156,2.0,2.0,79,0.00,,FEW,0.00,114.00,VWS V14.01,2013-11-01 12:54:00,
2013-11-01 08:55:00,80.7,73.6,29.98,SSE,155,2.0,2.0,79,0.00,,FEW,0.00,185.00,VWS V14.01,2013-11-01 12:55:00,
2013-11-01 08:56:00,80.7,73.6,29.98,SSE,154,3.0,3.0,79,0.00,,FEW,0.00,120.00,VWS V14.01,2013-11-01 12:56:00,
2013-11-01 08:58:00,80.7,73.6,29.98,SE,146,1.0,3.0,79,0.00,,FEW,0.00,220.00,VWS V14.01,2013-11-01 12:58:00,
2013-11-01 08:59:00,80.7,73.6,29.98,SE,146,1.0,3.0,79,0.00,,FEW,0.00,301.00,VWS V14.01,2013-11-01 12:59:00,
2013-11-01 09:00:00,80.8,73.7,29.98,SE,146,1.0,3.0,79,0.00,,FEW,0.00,339.00,VWS V14.01,2013-11-01 13:00:00,
2013-11-01 09:01:00,81.0,73.9,29.98,SE,146,1.0,1.0,79,0.00,,FEW,0.00,352.00,VWS V14.01,2013-11-01 13:01:00,
2013-11-01 09:03:00,81.2,73.7,29.98,SE,146,0.0,3.0,78,0.00,,FEW,0.00,155.00,VWS V14.01,2013-11-01 13:03:00,
2013-11-01 09:04:00,81.3,73.8,29.98,SE,146,2.0,3.0,78,0.00,,FEW,0.00,148.00,VWS V14.01,2013-11-01 13:04:00,
2013-11-01 09:05:00,81.3,73.8,29.98,SE,146,0.0,3.0,78,0.00,,FEW,0.00,148.00,VWS V14.01,2013-11-01 13:05:00,
2013-11-01 09:06:00,81.3,73.8,29.98,SE,146,0.0,3.0,78,0.00,,FEW,0.00,141.00,VWS V14.01,2013-11-01 13:06:00,
2013-11-01 09:08:00,81.2,74.1,29.98,SE,146,0.0,3.0,79,0.00,,FEW,0.00,107.00,VWS V14.01,2013-11-01 13:08:00,
2013-11-01 09:09:00,81.2,74.1,29.98,SE,146,0.0,3.0,79,0.00,,FEW,0.00,100.00,VWS V14.01,2013-11-01 13:09:00,
2013-11-01 09:10:00,81.1,74.0,29.98,SE,146,0.0,3.0,79,0.00,,FEW,0.00,91.00,VWS V14.01,2013-11-01 13:10:00,
2013-11-01 09:11:00,81.1,74.0,29.98,SE,142,0.0,0.0,79,0.00,,FEW,0.00,91.00,VWS V14.01,2013-11-01 13:11:00,
2013-11-01 09:13:00,81.0,74.2,29.98,SE,146,0.0,0.0,80,0.00,,FEW,0.00,348.00,VWS V14.01,2013-11-01 13:13:00,
2013-11-01 09:14:00,81.0,74.2,29.98,SE,146,0.0,0.0,80,0.00,,FEW,0.00,348.00,VWS V14.01,2013-11-01 13:14:00,
2013-11-01 09:15:00,81.0,74.2,29.98,SE,146,1.0,1.0,80,0.00,,FEW,0.00,359.00,VWS V14.01,2013-11-01 13:15:00,
2013-11-01 09:16:00,81.1,74.3,29.98,SE,146,0.0,1.0,80,0.00,,FEW,0.00,369.00,VWS V14.01,2013-11-01 13:16:00,
2013-11-01 09:18:00,81.4,74.6,29.98,SE,146,0.0,2.0,80,0.00,,FEW,0.00,392.00,VWS V14.01,2013-11-01 13:18:00,
2013-11-01 09:19:00,81.5,74.4,29.98,SE,146,0.0,2.0,79,0.00,,FEW,0.00,392.00,VWS V14.01,2013-11-01 13:19:00,
2013-11-01 09:20:00,81.6,74.5,29.98,SE,146,1.0,2.0,79,0.00,,FEW,0.00,141.00,VWS V14.01,2013-11-01 13:20:00,
2013-11-01 09:21:00,81.6,74.5,29.98,SE,146,0.0,1.0,79,0.00,,FEW,0.00,141.00,VWS V14.01,2013-11-01 13:21:00,
2013-11-01 09:24:00,81.4,74.3,29.98,SE,146,0.0,1.0,79,0.00,,FEW,0.00,97.00,VWS V14.01,2013-11-01 13:24:00,
2013-11-01 09:25:00,81.3,74.2,29.98,SE,146,0.0,1.0,79,0.00,,FEW,0.00,86.00,VWS V14.01,2013-11-01 13:25:00,
2013-11-01 09:26:00,81.3,74.2,29.98,SE,146,0.0,1.0,79,0.00,,FEW,0.00,86.00,VWS V14.01,2013-11-01 13:26:00,
2013-11-01 09:29:00,81.1,74.3,29.98,SE,146,0.0,2.0,80,0.00,,FEW,0.00,76.00,VWS V14.01,2013-11-01 13:29:00,
2013-11-01 09:31:00,81.1,74.3,29.98,SE,146,1.0,2.0,80,0.00,,FEW,0.00,81.00,VWS V14.01,2013-11-01 13:31:00,
2013-11-01 09:34:00,81.0,74.6,29.98,SE,146,1.0,2.0,81,0.00,,FEW,0.00,104.00,VWS V14.01,2013-11-01 13:34:00,
2013-11-01 09:36:00,81.0,75.0,29.98,SE,146,1.0,2.0,82,0.00,,FEW,0.00,91.00,VWS V14.01,2013-11-01 13:36:00,
2013-11-01 09:40:00,80.9,74.9,29.98,SE,146,1.0,2.0,82,0.00,,FEW,0.00,79.00,VWS V14.01,2013-11-01 13:40:00,
2013-11-01 09:41:00,80.9,74.9,29.98,SE,146,2.0,2.0,82,0.00,,FEW,0.00,81.00,VWS V14.01,2013-11-01 13:41:00,
2013-11-01 09:45:00,80.8,74.8,29.99,SE,146,1.0,2.0,82,0.00,,FEW,0.00,116.00,VWS V14.01,2013-11-01 13:45:00,
2013-11-01 09:46:00,80.8,75.2,29.99,SE,146,0.0,2.0,83,0.00,,FEW,0.00,142.00,VWS V14.01,2013-11-01 13:46:00,
2013-11-01 09:47:00,80.8,75.2,29.99,SE,146,0.0,2.0,83,0.00,,FEW,0.00,155.00,VWS V14.01,2013-11-01 13:47:00,
2013-11-01 09:50:00,80.7,75.1,29.99,SE,146,0.0,2.0,83,0.00,,FEW,0.00,167.00,VWS V14.01,2013-11-01 13:50:00,
2013-11-01 09:51:00,80.7,75.1,29.99,SE,146,0.0,2.0,83,0.00,,FEW,0.00,174.00,VWS V14.01,2013-11-01 13:51:00,
2013-11-01 09:52:00,80.7,75.1,29.99,SE,146,0.0,2.0,83,0.00,,FEW,0.00,179.00,VWS V14.01,2013-11-01 13:52:00,
2013-11-01 09:55:00,80.8,74.8,29.99,SE,142,1.0,3.0,82,0.00,,FEW,0.00,160.00,VWS V14.01,2013-11-01 13:55:00,
2013-11-01 09:56:00,80.9,74.9,29.99,SE,146,0.0,3.0,82,0.00,,FEW,0.00,148.00,VWS V14.01,2013-11-01 13:56:00,
2013-11-01 09:57:00,81.0,75.0,29.99,SE,146,0.0,3.0,82,0.00,,FEW,0.00,146.00,VWS V14.01,2013-11-01 13:57:00,
2013-11-01 10:01:00,81.0,74.6,29.99,SE,146,0.0,0.0,81,0.00,,FEW,0.00,181.00,VWS V14.01,2013-11-01 14:01:00,
2013-11-01 10:02:00,81.1,74.7,29.99,SE,146,0.0,1.0,81,0.00,,FEW,0.00,174.00,VWS V14.01,2013-11-01 14:02:00,
2013-11-01 10:03:00,81.1,74.7,29.99,SE,146,0.0,1.0,81,0.00,,FEW,0.00,162.00,VWS V14.01,2013-11-01 14:03:00,
2013-11-01 10:06:00,81.0,74.2,29.99,SE,146,1.0,3.0,80,0.00,,FEW,0.00,142.00,VWS V14.01,2013-11-01 14:06:00,
2013-11-01 10:07:00,81.0,74.2,29.99,SE,146,2.0,3.0,80,0.00,,FEW,0.00,141.00,VWS V14.01,2013-11-01 14:07:00,
2013-11-01 10:08:00,81.0,74.6,29.99,SE,146,0.0,3.0,81,0.00,,FEW,0.00,135.00,VWS V14.01,2013-11-01 14:08:00,
2013-11-01 10:11:00,80.9,74.9,29.99,SE,146,2.0,2.0,82,0.00,,FEW,0.00,118.00,VWS V14.01,2013-11-01 14:11:00,
2013-11-01 10:12:00,80.9,74.9,29.99,South,170,4.0,4.0,82,0.00,,FEW,0.00,116.00,VWS V14.01,2013-11-01 14:12:00,
2013-11-01 10:13:00,80.8,74.8,29.99,South,170,4.0,4.0,82,0.00,,FEW,0.00,120.00,VWS V14.01,2013-11-01 14:13:00,
2013-11-01 10:16:00,80.6,74.6,29.99,SSE,161,0.0,4.0,82,0.00,,FEW,0.00,132.00,VWS V14.01,2013-11-01 14:16:00,
2013-11-01 10:17:00,80.5,74.5,29.99,SSE,167,0.0,4.0,82,0.00,,FEW,0.00,132.00,VWS V14.01,2013-11-01 14:17:00,
2013-11-01 10:18:00,80.4,74.4,29.99,South,190,2.0,4.0,82,0.00,,FEW,0.00,130.00,VWS V14.01,2013-11-01 14:18:00,
2013-11-01 10:21:00,79.8,73.8,29.99,SSW,203,4.0,5.0,82,0.00,,FEW,0.00,130.00,VWS V14.01,2013-11-01 14:21:00,
2013-11-01 10:22:00,79.7,73.7,29.99,SSW,196,1.0,5.0,82,0.00,,FEW,0.00,132.00,VWS V14.01,2013-11-01 14:22:00,
2013-11-01 10:23:00,79.6,73.6,29.99,SSW,203,4.0,5.0,82,0.00,,FEW,0.00,135.00,VWS V14.01,2013-11-01 14:23:00,
2013-11-01 10:26:00,79.4,74.2,29.99,SSW,193,1.0,5.0,84,0.00,,FEW,0.00,155.00,VWS V14.01,2013-11-01 14:26:00,
2013-11-01 10:27:00,79.3,74.1,29.99,SSW,193,1.0,5.0,84,0.00,,FEW,0.00,155.00,VWS V14.01,2013-11-01 14:27:00,
2013-11-01 10:28:00,79.2,74.3,29.99,South,189,1.0,5.0,85,0.00,,FEW,0.00,162.00,VWS V14.01,2013-11-01 14:28:00,
2013-11-01 10:31:00,79.1,74.6,29.99,SSW,200,1.0,4.0,86,0.00,,FEW,0.00,195.00,VWS V14.01,2013-11-01 14:31:00,
2013-11-01 10:32:00,79.1,74.9,29.99,SSW,200,2.0,4.0,87,0.00,,FEW,0.00,195.00,VWS V14.01,2013-11-01 14:32:00,
2013-11-01 10:33:00,79.0,74.8,29.99,SSW,194,2.0,4.0,87,0.00,,FEW,0.00,192.00,VWS V14.01,2013-11-01 14:33:00,
2013-11-01 10:36:00,78.9,74.7,29.99,South,190,0.0,4.0,87,0.00,,FEW,0.00,172.00,VWS V14.01,2013-11-01 14:36:00,
2013-11-01 10:37:00,78.9,74.7,29.99,South,190,0.0,4.0,87,0.00,,FEW,0.00,172.00,VWS V14.01,2013-11-01 14:37:00,
2013-11-01 10:38:00,78.9,74.7,29.99,South,190,2.0,4.0,87,0.00,,FEW,0.00,172.00,VWS V14.01,2013-11-01 14:38:00,
2013-11-01 10:42:00,78.9,74.7,29.99,SSW,192,4.0,4.0,87,0.00,,FEW,0.00,156.00,VWS V14.01,2013-11-01 14:42:00,
2013-11-01 10:43:00,78.9,74.7,29.99,SSW,202,5.0,5.0,87,0.00,,FEW,0.00,156.00,VWS V14.01,2013-11-01 14:43:00,
2013-11-01 10:47:00,78.3,74.1,29.99,SSW,193,2.0,6.0,87,0.00,,FEW,0.00,118.00,VWS V14.01,2013-11-01 14:47:00,
2013-11-01 10:48:00,78.2,74.0,29.99,SSW,193,1.0,6.0,87,0.00,,FEW,0.00,125.00,VWS V14.01,2013-11-01 14:48:00,
2013-11-01 10:52:00,77.7,73.9,29.99,SSW,193,0.0,1.0,88,0.00,,FEW,0.00,153.00,VWS V14.01,2013-11-01 14:52:00,
2013-11-01 10:53:00,77.7,73.9,29.99,SSW,193,0.0,1.0,88,0.00,,FEW,0.00,158.00,VWS V14.01,2013-11-01 14:53:00,
2013-11-01 10:54:00,77.8,74.0,29.99,SSW,193,1.0,1.0,88,0.00,,FEW,0.00,160.00,VWS V14.01,2013-11-01 14:54:00,
2013-11-01 10:57:00,77.6,73.8,29.99,SSW,193,1.0,2.0,88,0.00,,FEW,0.00,146.00,VWS V14.01,2013-11-01 14:57:00,
2013-11-01 10:58:00,77.6,74.1,29.99,SSW,193,1.0,2.0,89,0.00,,FEW,0.00,146.00,VWS V14.01,2013-11-01 14:58:00,
2013-11-01 10:59:00,77.5,73.7,29.99,SSW,193,1.0,2.0,88,0.00,,FEW,0.00,151.00,VWS V14.01,2013-11-01 14:59:00,
2013-11-01 11:00:00,77.5,74.0,29.99,SSW,193,1.0,2.0,89,0.00,,FEW,0.00,151.00,VWS V14.01,2013-11-01 15:00:00,
2013-11-01 11:02:00,77.6,74.1,29.99,SSW,193,0.0,2.0,89,0.00,,FEW,0.00,163.00,VWS V14.01,2013-11-01 15:02:00,
2013-11-01 11:03:00,77.6,74.1,29.99,SSW,193,0.0,2.0,89,0.01,,FEW,0.01,163.00,VWS V14.01,2013-11-01 15:03:00,
2013-11-01 11:05:00,77.6,74.1,29.99,SSW,193,0.0,2.0,89,0.01,,FEW,0.01,169.00,VWS V14.01,2013-11-01 15:05:00,
2013-11-01 11:07:00,77.8,74.3,29.99,SSW,193,0.0,2.0,89,0.01,,FEW,0.01,183.00,VWS V14.01,2013-11-01 15:07:00,
2013-11-01 11:08:00,77.9,74.4,29.99,SSW,193,0.0,2.0,89,0.01,,FEW,0.01,199.00,VWS V14.01,2013-11-01 15:08:00,
2013-11-01 11:10:00,78.1,74.3,29.99,SSW,193,0.0,2.0,88,0.01,,FEW,0.01,239.00,VWS V14.01,2013-11-01 15:10:00,
2013-11-01 11:11:00,78.3,74.8,29.99,SSW,193,0.0,0.0,89,0.01,,FEW,0.01,267.00,VWS V14.01,2013-11-01 15:11:00,
2013-11-01 11:13:00,78.3,74.5,29.99,SSW,193,0.0,0.0,88,0.01,,FEW,0.01,287.00,VWS V14.01,2013-11-01 15:13:00,
2013-11-01 11:14:00,78.4,74.6,29.99,SSW,193,0.0,0.0,88,0.01,,FEW,0.01,290.00,VWS V14.01,2013-11-01 15:14:00,
2013-11-01 11:15:00,78.5,74.3,29.99,SSW,193,1.0,1.0,87,0.01,,FEW,0.01,294.00,VWS V14.01,2013-11-01 15:15:00,
2013-11-01 11:16:00,78.6,74.4,29.99,SSW,193,1.0,1.0,87,0.01,,FEW,0.01,292.00,VWS V14.01,2013-11-01 15:16:00,
2013-11-01 11:18:00,78.8,73.9,29.99,SSW,193,0.0,2.0,85,0.01,,FEW,0.01,292.00,VWS V14.01,2013-11-01 15:18:00,
2013-11-01 11:19:00,78.9,74.4,29.99,SSW,193,0.0,2.0,86,0.01,,FEW,0.01,295.00,VWS V14.01,2013-11-01 15:19:00,
2013-11-01 11:20:00,79.0,74.5,29.99,SSW,193,1.0,2.0,86,0.01,,FEW,0.01,329.00,VWS V14.01,2013-11-01 15:20:00,
2013-11-01 11:21:00,79.1,74.6,29.99,SSW,193,0.0,0.0,86,0.01,,FEW,0.01,410.00,VWS V14.01,2013-11-01 15:21:00,
2013-11-01 11:23:00,79.2,74.7,29.99,SSW,193,0.0,1.0,86,0.01,,FEW,0.01,439.00,VWS V14.01,2013-11-01 15:23:00,
2013-11-01 11:24:00,79.4,74.8,29.99,SSW,193,1.0,1.0,86,0.01,,FEW,0.01,439.00,VWS V14.01,2013-11-01 15:24:00,
2013-11-01 11:25:00,79.5,74.9,29.99,SSW,193,2.0,2.0,86,0.01,,FEW,0.01,439.00,VWS V14.01,2013-11-01 15:25:00,
2013-11-01 11:26:00,79.6,75.1,29.99,SSW,193,1.0,2.0,86,0.01,,FEW,0.01,522.00,VWS V14.01,2013-11-01 15:26:00,
2013-11-01 11:28:00,79.7,74.8,29.99,SSW,193,1.0,2.0,85,0.01,,FEW,0.01,496.00,VWS V14.01,2013-11-01 15:28:00,
2013-11-01 11:29:00,79.8,74.9,29.99,SSW,193,1.0,2.0,85,0.01,,FEW,0.01,561.00,VWS V14.01,2013-11-01 15:29:00,
2013-11-01 11:30:00,80.0,75.1,29.98,SSW,193,1.0,2.0,85,0.01,,FEW,0.01,649.00,VWS V14.01,2013-11-01 15:30:00,
2013-11-01 11:31:00,80.3,75.4,29.98,SSW,193,1.0,1.0,85,0.01,,FEW,0.01,649.00,VWS V14.01,2013-11-01 15:31:00,
2013-11-01 11:33:00,80.7,76.1,29.98,SSW,193,1.0,2.0,86,0.01,,FEW,0.01,649.00,VWS V14.01,2013-11-01 15:33:00,
2013-11-01 11:34:00,80.9,76.0,29.98,SSW,193,0.0,2.0,85,0.01,,FEW,0.01,649.00,VWS V14.01,2013-11-01 15:34:00,
2013-11-01 11:35:00,81.0,75.7,29.98,SSW,193,0.0,2.0,84,0.01,,FEW,0.01,1053.00,VWS V14.01,2013-11-01 15:35:00,
2013-11-01 11:36:00,81.4,75.4,29.98,SSW,193,0.0,2.0,82,0.01,,FEW,0.01,1053.00,VWS V14.01,2013-11-01 15:36:00,
2013-11-01 11:38:00,81.6,74.8,29.98,SSW,193,1.0,2.0,80,0.01,,FEW,0.01,1053.00,VWS V14.01,2013-11-01 15:38:00,
2013-11-01 11:39:00,81.6,74.8,29.98,SSW,193,1.0,2.0,80,0.01,,FEW,0.01,496.00,VWS V14.01,2013-11-01 15:39:00,
2013-11-01 11:40:00,81.6,74.1,29.98,SSW,193,1.0,2.0,78,0.01,,FEW,0.01,422.00,VWS V14.01,2013-11-01 15:40:00,
2013-11-01 11:41:00,81.6,74.1,29.98,SSW,193,2.0,2.0,78,0.01,,FEW,0.01,422.00,VWS V14.01,2013-11-01 15:41:00,
2013-11-01 11:42:00,81.4,73.9,29.98,SSW,193,3.0,3.0,78,0.01,,FEW,0.01,431.00,VWS V14.01,2013-11-01 15:42:00,
2013-11-01 11:43:00,81.1,73.2,29.98,SSW,193,2.0,3.0,77,0.01,,FEW,0.01,443.00,VWS V14.01,2013-11-01 15:43:00,
2013-11-01 11:44:00,81.0,73.9,29.98,SSW,193,2.0,3.0,79,0.01,,FEW,0.01,492.00,VWS V14.01,2013-11-01 15:44:00,
2013-11-01 11:45:00,81.0,74.6,29.97,SSW,193,0.0,3.0,81,0.01,,FEW,0.01,438.00,VWS V14.01,2013-11-01 15:45:00,
2013-11-01 11:46:00,81.0,75.0,29.97,SSW,193,0.0,3.0,82,0.01,,FEW,0.01,394.00,VWS V14.01,2013-11-01 15:46:00,
2013-11-01 11:47:00,81.0,74.2,29.97,SSW,193,1.0,3.0,80,0.01,,FEW,0.01,420.00,VWS V14.01,2013-11-01 15:47:00,
2013-11-01 11:48:00,80.9,73.8,29.97,SSW,193,2.0,3.0,79,0.01,,FEW,0.01,621.00,VWS V14.01,2013-11-01 15:48:00,
2013-11-01 11:49:00,80.9,73.4,29.97,SSW,193,0.0,3.0,78,0.01,,FEW,0.01,613.00,VWS V14.01,2013-11-01 15:49:00,
2013-11-01 11:50:00,81.0,73.5,29.97,SSW,193,2.0,3.0,78,0.01,,FEW,0.01,520.00,VWS V14.01,2013-11-01 15:50:00,
2013-11-01 11:51:00,81.2,73.7,29.97,SSW,193,1.0,2.0,78,0.01,,FEW,0.01,606.00,VWS V14.01,2013-11-01 15:51:00,
2013-11-01 11:52:00,81.5,73.6,29.97,SSW,193,2.0,2.0,77,0.01,,FEW,0.01,606.00,VWS V14.01,2013-11-01 15:52:00,
2013-11-01 11:53:00,81.7,73.8,29.97,SSW,193,2.0,2.0,77,0.01,,FEW,0.01,826.00,VWS V14.01,2013-11-01 15:53:00,
2013-11-01 11:54:00,81.8,73.5,29.97,SSW,193,1.0,2.0,76,0.01,,FEW,0.01,826.00,VWS V14.01,2013-11-01 15:54:00,
2013-11-01 11:55:00,81.8,73.5,29.97,SSW,193,1.0,2.0,76,0.01,,FEW,0.01,826.00,VWS V14.01,2013-11-01 15:55:00,
2013-11-01 11:56:00,81.9,73.6,29.97,SSW,193,0.0,2.0,76,0.01,,FEW,0.01,826.00,VWS V14.01,2013-11-01 15:56:00,
2013-11-01 11:57:00,82.3,74.0,29.97,SSW,193,2.0,2.0,76,0.01,,FEW,0.01,904.00,VWS V14.01,2013-11-01 15:57:00,
2013-11-01 11:58:00,82.3,74.0,29.97,SSW,193,3.0,3.0,76,0.01,,FEW,0.01,904.00,VWS V14.01,2013-11-01 15:58:00,
2013-11-01 11:59:00,82.3,73.6,29.97,SSW,193,1.0,3.0,75,0.01,,FEW,0.01,853.00,VWS V14.01,2013-11-01 15:59:00,
2013-11-01 12:00:00,82.5,73.8,29.97,SSW,193,2.0,2.0,75,0.01,,FEW,0.01,809.00,VWS V14.01,2013-11-01 16:00:00,
2013-11-01 12:01:00,82.5,73.8,29.97,SSW,193,2.0,2.0,75,0.01,,FEW,0.01,809.00,VWS V14.01,2013-11-01 16:01:00,
2013-11-01 12:02:00,82.8,74.1,29.97,SSW,193,1.0,2.0,75,0.01,,FEW,0.01,789.00,VWS V14.01,2013-11-01 16:02:00,
2013-11-01 12:03:00,82.9,74.2,29.97,SSW,193,1.0,2.0,75,0.01,,FEW,0.01,795.00,VWS V14.01,2013-11-01 16:03:00,
2013-11-01 12:04:00,83.0,74.3,29.97,SSW,193,2.0,3.0,75,0.01,,FEW,0.01,795.00,VWS V14.01,2013-11-01 16:04:00,
2013-11-01 12:06:00,83.0,73.9,29.97,SSW,193,2.0,3.0,74,0.01,,FEW,0.01,784.00,VWS V14.01,2013-11-01 16:06:00,
2013-11-01 12:07:00,82.9,74.2,29.97,SSW,193,0.0,4.0,75,0.01,,FEW,0.01,784.00,VWS V14.01,2013-11-01 16:07:00,
2013-11-01 12:08:00,82.9,74.2,29.97,SSW,193,2.0,4.0,75,0.01,,FEW,0.01,782.00,VWS V14.01,2013-11-01 16:08:00,
2013-11-01 12:09:00,83.1,74.8,29.97,SSW,193,2.0,4.0,76,0.01,,FEW,0.01,782.00,VWS V14.01,2013-11-01 16:09:00,
2013-11-01 12:11:00,83.6,74.4,29.97,SSW,193,1.0,2.0,74,0.00,,FEW,0.01,786.00,VWS V14.01,2013-11-01 16:11:00,
2013-11-01 12:12:00,83.6,74.0,29.97,SSW,193,3.0,3.0,73,0.00,,FEW,0.01,784.00,VWS V14.01,2013-11-01 16:12:00,
2013-11-01 12:13:00,83.5,73.9,29.97,SSW,193,1.0,3.0,73,0.00,,FEW,0.01,780.00,VWS V14.01,2013-11-01 16:13:00,
2013-11-01 12:14:00,83.5,73.5,29.97,SSW,193,2.0,3.0,72,0.00,,FEW,0.01,777.00,VWS V14.01,2013-11-01 16:14:00,
2013-11-01 12:16:00,83.4,73.0,29.96,SSW,193,0.0,3.0,71,0.00,,FEW,0.01,803.00,VWS V14.01,2013-11-01 16:16:00,
2013-11-01 12:17:00,83.5,73.5,29.96,SSW,193,1.0,3.0,72,0.00,,FEW,0.01,835.00,VWS V14.01,2013-11-01 16:17:00,
2013-11-01 12:18:00,83.6,73.2,29.96,SSW,193,0.0,3.0,71,0.00,,FEW,0.01,835.00,VWS V14.01,2013-11-01 16:18:00,
2013-11-01 12:19:00,83.7,73.3,29.96,SSW,193,0.0,3.0,71,0.00,,FEW,0.01,835.00,VWS V14.01,2013-11-01 16:19:00,
2013-11-01 12:20:00,83.6,73.2,29.96,SSW,193,0.0,3.0,71,0.00,,FEW,0.01,835.00,VWS V14.01,2013-11-01 16:20:00,
2013-11-01 12:21:00,83.5,73.1,29.96,SSW,193,1.0,2.0,71,0.00,,FEW,0.01,193.00,VWS V14.01,2013-11-01 16:21:00,
2013-11-01 12:22:00,83.3,73.3,29.96,SSW,193,1.0,2.0,72,0.00,,FEW,0.01,207.00,VWS V14.01,2013-11-01 16:22:00,
2013-11-01 12:23:00,83.2,73.2,29.96,SSW,193,1.0,2.0,72,0.00,,FEW,0.01,251.00,VWS V14.01,2013-11-01 16:23:00,
2013-11-01 12:24:00,83.2,73.2,29.96,SSW,193,1.0,2.0,72,0.00,,FEW,0.01,251.00,VWS V14.01,2013-11-01 16:24:00,
2013-11-01 12:25:00,83.2,73.7,29.96,SSW,193,2.0,2.0,73,0.00,,FEW,0.01,285.00,VWS V14.01,2013-11-01 16:25:00,
2013-11-01 12:26:00,82.8,72.9,29.96,SSW,193,1.0,2.0,72,0.00,,FEW,0.01,378.00,VWS V14.01,2013-11-01 16:26:00,
2013-11-01 12:27:00,82.7,73.2,29.96,WSW,250,2.0,3.0,73,0.00,,FEW,0.01,378.00,VWS V14.01,2013-11-01 16:27:00,
2013-11-01 12:28:00,82.7,73.2,29.96,WSW,250,1.0,3.0,73,0.00,,FEW,0.01,378.00,VWS V14.01,2013-11-01 16:28:00,
2013-11-01 12:29:00,82.7,74.0,29.96,WSW,252,1.0,3.0,75,0.00,,FEW,0.01,601.00,VWS V14.01,2013-11-01 16:29:00,
2013-11-01 12:30:00,82.8,74.5,29.96,NNW,345,3.0,5.0,76,0.00,,FEW,0.01,601.00,VWS V14.01,2013-11-01 16:30:00,
2013-11-01 12:31:00,82.9,74.6,29.96,NW,326,3.0,4.0,76,0.00,,FEW,0.01,601.00,VWS V14.01,2013-11-01 16:31:00,
2013-11-01 12:32:00,82.9,74.9,29.96,NNW,338,1.0,4.0,77,0.00,,FEW,0.01,471.00,VWS V14.01,2013-11-01 16:32:00,
2013-11-01 12:33:00,82.9,74.6,29.96,NNW,338,1.0,4.0,76,0.00,,FEW,0.01,471.00,VWS V14.01,2013-11-01 16:33:00,
2013-11-01 12:34:00,82.8,74.5,29.96,North,360,4.0,4.0,76,0.00,,FEW,0.01,471.00,VWS V14.01,2013-11-01 16:34:00,
2013-11-01 12:35:00,82.7,74.4,29.96,NNW,347,4.0,4.0,76,0.00,,FEW,0.01,916.00,VWS V14.01,2013-11-01 16:35:00,
2013-11-01 12:36:00,82.6,74.3,29.96,NNW,347,1.0,4.0,76,0.00,,FEW,0.01,979.00,VWS V14.01,2013-11-01 16:36:00,
2013-11-01 12:38:00,82.7,74.4,29.96,NNE,13,4.0,4.0,76,0.00,,FEW,0.01,954.00,VWS V14.01,2013-11-01 16:38:00,
2013-11-01 12:39:00,82.8,74.5,29.96,North,360,2.0,4.0,76,0.00,,FEW,0.01,877.00,VWS V14.01,2013-11-01 16:39:00,
2013-11-01 12:40:00,82.9,74.9,29.96,North,355,1.0,5.0,77,0.00,,FEW,0.01,846.00,VWS V14.01,2013-11-01 16:40:00,
2013-11-01 12:42:00,82.9,74.6,29.96,North,355,1.0,1.0,76,0.00,,FEW,0.01,809.00,VWS V14.01,2013-11-01 16:42:00,
2013-11-01 12:43:00,83.2,74.8,29.96,North,355,0.0,1.0,76,0.00,,FEW,0.01,800.00,VWS V14.01,2013-11-01 16:43:00,
2013-11-01 12:44:00,83.8,75.4,29.96,North,355,0.0,1.0,76,0.00,,FEW,0.01,793.00,VWS V14.01,2013-11-01 16:44:00,
2013-11-01 12:45:00,83.9,74.7,29.95,WNW,296,4.0,4.0,74,0.00,,FEW,0.01,795.00,VWS V14.01,2013-11-01 16:45:00,
2013-11-01 12:47:00,83.8,74.2,29.95,WSW,253,2.0,4.0,73,0.00,,FEW,0.01,789.00,VWS V14.01,2013-11-01 16:47:00,
2013-11-01 12:48:00,83.8,74.2,29.95,West,272,1.0,4.0,73,0.00,,FEW,0.01,789.00,VWS V14.01,2013-11-01 16:48:00,
2013-11-01 12:49:00,83.7,74.5,29.95,WNW,286,2.0,4.0,74,0.00,,FEW,0.01,791.00,VWS V14.01,2013-11-01 16:49:00,
2013-11-01 12:50:00,83.6,74.0,29.95,WNW,301,1.0,1.0,73,0.00,,FEW,0.01,803.00,VWS V14.01,2013-11-01 16:50:00,
2013-11-01 12:52:00,83.8,74.6,29.95,WNW,301,0.0,2.0,74,0.00,,FEW,0.01,853.00,VWS V14.01,2013-11-01 16:52:00,
2013-11-01 12:53:00,84.0,74.8,29.95,WNW,301,1.0,3.0,74,0.00,,FEW,0.01,853.00,VWS V14.01,2013-11-01 16:53:00,
2013-11-01 12:54:00,83.9,74.3,29.95,NNW,344,1.0,5.0,73,0.00,,FEW,0.01,853.00,VWS V14.01,2013-11-01 16:54:00,
2013-11-01 12:56:00,83.7,74.1,29.95,NNW,344,1.0,5.0,73,0.00,,FEW,0.01,853.00,VWS V14.01,2013-11-01 16:56:00,
2013-11-01 12:57:00,83.8,74.6,29.95,North,350,3.0,5.0,74,0.00,,FEW,0.01,854.00,VWS V14.01,2013-11-01 16:57:00,
2013-11-01 12:58:00,83.9,74.7,29.95,NW,322,2.0,5.0,74,0.00,,FEW,0.01,879.00,VWS V14.01,2013-11-01 16:58:00,
2013-11-01 12:59:00,84.0,74.4,29.95,NNW,327,0.0,5.0,73,0.00,,FEW,0.01,884.00,VWS V14.01,2013-11-01 16:59:00,
2013-11-01 13:00:00,84.2,75.0,29.95,NNW,333,2.0,5.0,74,0.00,,FEW,0.01,884.00,VWS V14.01,2013-11-01 17:00:00,
2013-11-01 13:01:00,84.3,74.7,29.95,NW,317,1.0,3.0,73,0.00,,FEW,0.01,865.00,VWS V14.01,2013-11-01 17:01:00,
2013-11-01 13:02:00,84.3,74.7,29.95,NNW,334,2.0,4.0,73,0.00,,FEW,0.01,624.00,VWS V14.01,2013-11-01 17:02:00,
2013-11-01 13:04:00,84.3,74.7,29.95,WNW,294,5.0,5.0,73,0.00,,FEW,0.01,624.00,VWS V14.01,2013-11-01 17:04:00,
2013-11-01 13:05:00,84.3,74.3,29.95,NW,311,4.0,5.0,72,0.00,,FEW,0.01,942.00,VWS V14.01,2013-11-01 17:05:00,
2013-11-01 13:06:00,84.2,74.2,29.95,NW,323,3.0,5.0,72,0.00,,FEW,0.01,942.00,VWS V14.01,2013-11-01 17:06:00,
2013-11-01 13:07:00,84.0,74.0,29.95,NNW,345,4.0,6.0,72,0.00,,FEW,0.01,942.00,VWS V14.01,2013-11-01 17:07:00,
2013-11-01 13:09:00,83.7,74.1,29.95,NW,311,3.0,6.0,73,0.00,,FEW,0.01,942.00,VWS V14.01,2013-11-01 17:09:00,
2013-11-01 13:10:00,83.4,73.8,29.95,NNW,332,5.0,6.0,73,0.00,,FEW,0.01,383.00,VWS V14.01,2013-11-01 17:10:00,
2013-11-01 13:11:00,83.1,73.6,29.95,NNW,342,5.0,5.0,73,0.00,,FEW,0.01,299.00,VWS V14.01,2013-11-01 17:11:00,
2013-11-01 13:12:00,82.9,73.4,29.95,North,360,4.0,6.0,73,0.00,,FEW,0.01,281.00,VWS V14.01,2013-11-01 17:12:00,
2013-11-01 13:14:00,82.4,73.7,29.95,North,5,3.0,6.0,75,0.00,,FEW,0.01,281.00,VWS V14.01,2013-11-01 17:14:00,
2013-11-01 13:15:00,82.3,73.6,29.94,NW,322,3.0,6.0,75,0.00,,FEW,0.01,281.00,VWS V14.01,2013-11-01 17:15:00,
2013-11-01 13:16:00,82.5,73.8,29.94,North,360,5.0,6.0,75,0.00,,FEW,0.01,281.00,VWS V14.01,2013-11-01 17:16:00,
2013-11-01 13:17:00,82.5,73.8,29.94,North,360,3.0,6.0,75,0.00,,FEW,0.01,782.00,VWS V14.01,2013-11-01 17:17:00,
2013-11-01 13:19:00,83.0,73.9,29.94,North,355,6.0,6.0,74,0.00,,FEW,0.01,780.00,VWS V14.01,2013-11-01 17:19:00,
2013-11-01 13:20:00,83.0,73.5,29.94,NNW,346,4.0,6.0,73,0.00,,FEW,0.01,780.00,VWS V14.01,2013-11-01 17:20:00,
2013-11-01 13:21:00,82.9,73.4,29.94,NW,323,4.0,5.0,73,0.00,,FEW,0.01,596.00,VWS V14.01,2013-11-01 17:21:00,
2013-11-01 13:22:00,82.9,73.8,29.94,North,355,2.0,5.0,74,0.00,,FEW,0.01,548.00,VWS V14.01,2013-11-01 17:22:00,
2013-11-01 13:24:00,83.2,73.7,29.94,North,355,3.0,5.0,73,0.00,,FEW,0.01,548.00,VWS V14.01,2013-11-01 17:24:00,
2013-11-01 13:25:00,83.3,73.8,29.94,North,11,2.0,5.0,73,0.00,,FEW,0.01,297.00,VWS V14.01,2013-11-01 17:25:00,
2013-11-01 13:26:00,83.3,73.3,29.94,North,360,5.0,5.0,72,0.00,,FEW,0.01,288.00,VWS V14.01,2013-11-01 17:26:00,
2013-11-01 13:27:00,83.1,73.1,29.94,North,360,5.0,5.0,72,0.00,,FEW,0.01,276.00,VWS V14.01,2013-11-01 17:27:00,
2013-11-01 13:29:00,82.5,73.4,29.94,NNW,342,3.0,7.0,74,0.00,,FEW,0.01,285.00,VWS V14.01,2013-11-01 17:29:00,
2013-11-01 13:30:00,82.4,73.7,29.94,North,360,2.0,7.0,75,0.00,,FEW,0.01,353.00,VWS V14.01,2013-11-01 17:30:00,
2013-11-01 13:31:00,82.4,73.7,29.94,North,355,3.0,3.0,75,0.00,,FEW,0.01,353.00,VWS V14.01,2013-11-01 17:31:00,
2013-11-01 13:32:00,83.0,74.7,29.94,North,360,6.0,6.0,76,0.00,,FEW,0.01,991.00,VWS V14.01,2013-11-01 17:32:00,
2013-11-01 13:34:00,83.4,74.2,29.94,NNW,343,4.0,7.0,74,0.00,,FEW,0.01,1058.00,VWS V14.01,2013-11-01 17:34:00,
2013-11-01 13:35:00,83.2,74.1,29.94,NNW,342,5.0,7.0,74,0.00,,FEW,0.01,1058.00,VWS V14.01,2013-11-01 17:35:00,
2013-11-01 13:36:00,83.0,73.9,29.94,North,355,4.0,7.0,74,0.00,,FEW,0.01,1058.00,VWS V14.01,2013-11-01 17:36:00,
2013-11-01 13:37:00,83.1,74.4,29.94,NNW,346,6.0,7.0,75,0.00,,FEW,0.01,1042.00,VWS V14.01,2013-11-01 17:37:00,
2013-11-01 13:39:00,83.2,74.5,29.94,North,360,2.0,7.0,75,0.00,,FEW,0.01,1021.00,VWS V14.01,2013-11-01 17:39:00,
2013-11-01 13:40:00,83.3,74.9,29.94,NNW,331,6.0,6.0,76,0.00,,FEW,0.01,1021.00,VWS V14.01,2013-11-01 17:40:00,
2013-11-01 13:41:00,83.3,74.6,29.94,NNW,342,1.0,6.0,75,0.00,,FEW,0.01,1021.00,VWS V14.01,2013-11-01 17:41:00,
2013-11-01 13:43:00,83.4,75.1,29.94,North,349,6.0,6.0,76,0.00,,FEW,0.01,1021.00,VWS V14.01,2013-11-01 17:43:00,
2013-11-01 13:44:00,82.8,74.5,29.93,North,355,4.0,6.0,76,0.00,,FEW,0.01,1021.00,VWS V14.01,2013-11-01 17:44:00,
2013-11-01 13:46:00,82.6,74.7,29.93,North,5,3.0,6.0,77,0.00,,FEW,0.01,183.00,VWS V14.01,2013-11-01 17:46:00,
2013-11-01 13:47:00,82.6,74.7,29.93,North,9,2.0,6.0,77,0.00,,FEW,0.01,183.00,VWS V14.01,2013-11-01 17:47:00,
2013-11-01 13:48:00,82.4,74.1,29.93,NNE,13,0.0,6.0,76,0.00,,FEW,0.01,148.00,VWS V14.01,2013-11-01 17:48:00,
2013-11-01 13:50:00,82.3,74.0,29.93,North,360,3.0,6.0,76,0.00,,FEW,0.01,135.00,VWS V14.01,2013-11-01 17:50:00,
2013-11-01 13:51:00,82.2,73.9,29.93,North,360,2.0,4.0,76,0.00,,FEW,0.01,141.00,VWS V14.01,2013-11-01 17:51:00,
2013-11-01 13:52:00,82.2,73.9,29.93,North,360,0.0,4.0,76,0.00,,FEW,0.01,141.00,VWS V14.01,2013-11-01 17:52:00,
2013-11-01 13:53:00,82.1,73.8,29.93,North,9,2.0,4.0,76,0.00,,FEW,0.01,148.00,VWS V14.01,2013-11-01 17:53:00,
2013-11-01 13:55:00,82.0,73.7,29.93,North,355,4.0,4.0,76,0.00,,FEW,0.01,181.00,VWS V14.01,2013-11-01 17:55:00,
2013-11-01 13:56:00,81.8,73.9,29.93,North,349,4.0,6.0,77,0.00,,FEW,0.01,207.00,VWS V14.01,2013-11-01 17:56:00,
2013-11-01 13:57:00,81.6,73.7,29.93,North,355,3.0,6.0,77,0.00,,FEW,0.01,207.00,VWS V14.01,2013-11-01 17:57:00,
2013-11-01 13:58:00,81.6,74.1,29.93,NNW,343,5.0,6.0,78,0.00,,FEW,0.01,207.00,VWS V14.01,2013-11-01 17:58:00,
2013-11-01 14:00:00,82.0,74.5,29.92,North,350,2.0,6.0,78,0.00,,FEW,0.01,914.00,VWS V14.01,2013-11-01 18:00:00,
2013-11-01 14:01:00,82.6,75.1,29.92,NNW,342,4.0,5.0,78,0.00,,FEW,0.01,865.00,VWS V14.01,2013-11-01 18:01:00,
2013-11-01 14:02:00,82.6,74.7,29.92,North,360,1.0,5.0,77,0.00,,FEW,0.01,865.00,VWS V14.01,2013-11-01 18:02:00,
2013-11-01 14:03:00,82.8,74.9,29.92,North,355,5.0,5.0,77,0.00,,FEW,0.01,851.00,VWS V14.01,2013-11-01 18:03:00,
2013-11-01 14:05:00,83.2,75.2,29.92,NNW,333,2.0,5.0,77,0.00,,FEW,0.01,809.00,VWS V14.01,2013-11-01 18:05:00,
2013-11-01 14:06:00,83.4,75.1,29.92,NNW,331,2.0,5.0,76,0.00,,FEW,0.01,789.00,VWS V14.01,2013-11-01 18:06:00,
2013-11-01 14:07:00,83.4,74.7,29.92,NNW,339,3.0,5.0,75,0.00,,FEW,0.01,779.00,VWS V14.01,2013-11-01 18:07:00,
2013-11-01 14:08:00,83.4,74.2,29.92,WNW,301,1.0,5.0,74,0.00,,FEW,0.01,773.00,VWS V14.01,2013-11-01 18:08:00,
2013-11-01 14:10:00,83.9,74.3,29.92,NNW,344,2.0,2.0,73,0.00,,FEW,0.01,761.00,VWS V14.01,2013-11-01 18:10:00,
2013-11-01 14:11:00,84.1,74.5,29.92,NNW,348,1.0,2.0,73,0.00,,FEW,0.01,763.00,VWS V14.01,2013-11-01 18:11:00,
2013-11-01 14:12:00,84.5,74.5,29.92,NNW,347,0.0,3.0,72,0.00,,FEW,0.01,763.00,VWS V14.01,2013-11-01 18:12:00,
2013-11-01 14:13:00,85.0,74.6,29.92,North,5,2.0,3.0,71,0.00,,FEW,0.01,763.00,VWS V14.01,2013-11-01 18:13:00,
2013-11-01 14:14:00,85.2,74.7,29.92,North,5,2.0,3.0,71,0.00,,FEW,0.01,765.00,VWS V14.01,2013-11-01 18:14:00,
2013-11-01 14:16:00,85.2,74.3,29.91,NNW,348,3.0,4.0,70,0.00,,FEW,0.01,772.00,VWS V14.01,2013-11-01 18:16:00,
2013-11-01 14:17:00,85.1,74.2,29.91,NNW,332,3.0,4.0,70,0.00,,FEW,0.01,786.00,VWS V14.01,2013-11-01 18:17:00,
2013-11-01 14:18:00,85.0,74.1,29.91,NNW,332,1.0,4.0,70,0.00,,FEW,0.01,788.00,VWS V14.01,2013-11-01 18:18:00,
2013-11-01 14:19:00,84.6,74.2,29.91,North,355,3.0,4.0,71,0.00,,FEW,0.01,779.00,VWS V14.01,2013-11-01 18:19:00,
2013-11-01 14:21:00,85.0,75.0,29.91,NNE,13,2.0,3.0,72,0.00,,FEW,0.01,777.00,VWS V14.01,2013-11-01 18:21:00,
2013-11-01 14:22:00,85.1,75.1,29.91,NNW,342,4.0,4.0,72,0.00,,FEW,0.01,427.00,VWS V14.01,2013-11-01 18:22:00,
2013-11-01 14:23:00,85.1,75.1,29.91,North,350,3.0,5.0,72,0.00,,FEW,0.01,427.00,VWS V14.01,2013-11-01 18:23:00,
2013-11-01 14:24:00,84.9,74.4,29.91,NNE,15,3.0,5.0,71,0.00,,FEW,0.01,519.00,VWS V14.01,2013-11-01 18:24:00,
2013-11-01 14:26:00,84.4,74.0,29.91,NNW,332,1.0,6.0,71,0.00,,FEW,0.01,570.00,VWS V14.01,2013-11-01 18:26:00,
2013-11-01 14:27:00,84.3,73.9,29.91,North,350,1.0,6.0,71,0.00,,FEW,0.01,570.00,VWS V14.01,2013-11-01 18:27:00,
2013-11-01 14:28:00,84.2,74.2,29.91,NW,311,5.0,6.0,72,0.00,,FEW,0.01,570.00,VWS V14.01,2013-11-01 18:28:00,
2013-11-01 14:29:00,83.8,73.8,29.91,North,349,4.0,6.0,72,0.00,,FEW,0.01,260.00,VWS V14.01,2013-11-01 18:29:00,
2013-11-01 14:32:00,83.0,73.9,29.91,NNW,347,4.0,6.0,74,0.00,,FEW,0.01,283.00,VWS V14.01,2013-11-01 18:32:00,
2013-11-01 14:33:00,82.8,73.7,29.91,North,360,6.0,6.0,74,0.00,,FEW,0.01,283.00,VWS V14.01,2013-11-01 18:33:00,
2013-11-01 14:34:00,82.5,73.8,29.91,North,10,3.0,6.0,75,0.00,,FEW,0.01,313.00,VWS V14.01,2013-11-01 18:34:00,
2013-11-01 14:35:00,82.5,73.8,29.91,NNE,15,3.0,6.0,75,0.00,,FEW,0.01,318.00,VWS V14.01,2013-11-01 18:35:00,
2013-11-01 14:37:00,82.1,73.8,29.91,NNW,347,4.0,6.0,76,0.00,,FEW,0.01,329.00,VWS V14.01,2013-11-01 18:37:00,
2013-11-01 14:38:00,82.0,73.7,29.91,North,355,2.0,6.0,76,0.00,,FEW,0.01,411.00,VWS V14.01,2013-11-01 18:38:00,
2013-11-01 14:39:00,82.0,73.7,29.91,North,5,3.0,6.0,76,0.00,,FEW,0.01,411.00,VWS V14.01,2013-11-01 18:39:00,
2013-11-01 14:40:00,82.0,73.7,29.91,North,360,3.0,6.0,76,0.00,,FEW,0.01,239.00,VWS V14.01,2013-11-01 18:40:00,
2013-11-01 14:42:00,82.1,73.8,29.91,NNE,27,2.0,4.0,76,0.00,,FEW,0.01,223.00,VWS V14.01,2013-11-01 18:42:00,
2013-11-01 14:43:00,82.1,73.8,29.91,North,5,3.0,4.0,76,0.00,,FEW,0.01,225.00,VWS V14.01,2013-11-01 18:43:00,
2013-11-01 14:44:00,82.1,73.8,29.91,North,5,1.0,4.0,76,0.00,,FEW,0.01,213.00,VWS V14.01,2013-11-01 18:44:00,
2013-11-01 14:45:00,82.2,73.9,29.90,North,5,1.0,4.0,76,0.00,,FEW,0.01,232.00,VWS V14.01,2013-11-01 18:45:00,
2013-11-01 14:47:00,82.3,74.0,29.90,NNE,13,2.0,4.0,76,0.00,,FEW,0.01,216.00,VWS V14.01,2013-11-01 18:47:00,
2013-11-01 14:48:00,82.2,73.9,29.90,North,5,2.0,5.0,76,0.00,,FEW,0.01,218.00,VWS V14.01,2013-11-01 18:48:00,
2013-11-01 14:49:00,82.2,73.9,29.90,NE,44,2.0,5.0,76,0.00,,FEW,0.01,223.00,VWS V14.01,2013-11-01 18:49:00,
2013-11-01 14:50:00,82.2,73.9,29.90,NNE,30,3.0,5.0,76,0.00,,FEW,0.01,223.00,VWS V14.01,2013-11-01 18:50:00,
2013-11-01 14:52:00,81.9,73.6,29.90,NNE,32,1.0,4.0,76,0.00,,FEW,0.01,244.00,VWS V14.01,2013-11-01 18:52:00,
2013-11-01 14:53:00,82.0,73.7,29.90,NNE,23,1.0,4.0,76,0.00,,FEW,0.01,243.00,VWS V14.01,2013-11-01 18:53:00,
2013-11-01 14:54:00,82.0,73.7,29.90,NNE,14,4.0,5.0,76,0.00,,FEW,0.01,236.00,VWS V14.01,2013-11-01 18:54:00,
2013-11-01 14:55:00,82.0,73.7,29.90,NNE,32,1.0,5.0,76,0.00,,FEW,0.01,229.00,VWS V14.01,2013-11-01 18:55:00,
2013-11-01 14:56:00,81.9,73.6,29.90,NNE,29,2.0,5.0,76,0.00,,FEW,0.01,223.00,VWS V14.01,2013-11-01 18:56:00,
2013-11-01 14:57:00,81.9,73.6,29.90,NNE,32,4.0,5.0,76,0.00,,FEW,0.01,218.00,VWS V14.01,2013-11-01 18:57:00,
2013-11-01 14:58:00,81.7,73.4,29.90,North,355,3.0,5.0,76,0.00,,FEW,0.01,211.00,VWS V14.01,2013-11-01 18:58:00,
2013-11-01 14:59:00,81.6,73.7,29.90,NNW,345,5.0,5.0,77,0.00,,FEW,0.01,206.00,VWS V14.01,2013-11-01 18:59:00,
2013-11-01 15:00:00,81.6,73.7,29.90,NNW,342,5.0,5.0,77,0.00,,FEW,0.01,200.00,VWS V14.01,2013-11-01 19:00:00,
2013-11-01 15:01:00,81.4,73.1,29.90,NNW,342,4.0,4.0,76,0.00,,FEW,0.01,197.00,VWS V14.01,2013-11-01 19:01:00,
2013-11-01 15:02:00,81.4,73.5,29.90,NNW,347,3.0,4.0,77,0.00,,FEW,0.01,193.00,VWS V14.01,2013-11-01 19:02:00,
2013-11-01 15:03:00,81.4,73.9,29.90,North,355,2.0,4.0,78,0.00,,FEW,0.01,190.00,VWS V14.01,2013-11-01 19:03:00,
2013-11-01 15:05:00,81.4,73.9,29.90,NE,34,2.0,4.0,78,0.00,,FEW,0.01,192.00,VWS V14.01,2013-11-01 19:05:00,
2013-11-01 15:06:00,81.4,73.9,29.90,NNE,28,2.0,4.0,78,0.00,,FEW,0.01,199.00,VWS V14.01,2013-11-01 19:06:00,
2013-11-01 15:07:00,81.5,74.0,29.90,NNE,18,3.0,4.0,78,0.00,,FEW,0.01,204.00,VWS V14.01,2013-11-01 19:07:00,
2013-11-01 15:09:00,81.5,73.6,29.90,North,5,4.0,5.0,77,0.00,,FEW,0.01,216.00,VWS V14.01,2013-11-01 19:09:00,
2013-11-01 15:10:00,81.5,74.0,29.90,North,355,2.0,5.0,78,0.00,,FEW,0.01,221.00,VWS V14.01,2013-11-01 19:10:00,
2013-11-01 15:11:00,81.5,73.6,29.90,North,355,3.0,4.0,77,0.00,,FEW,0.01,227.00,VWS V14.01,2013-11-01 19:11:00,
2013-11-01 15:12:00,81.4,73.5,29.90,North,355,2.0,4.0,77,0.00,,FEW,0.01,237.00,VWS V14.01,2013-11-01 19:12:00,
2013-11-01 15:14:00,81.4,73.9,29.90,NNE,15,0.0,4.0,78,0.00,,FEW,0.01,236.00,VWS V14.01,2013-11-01 19:14:00,
2013-11-01 15:16:00,81.6,73.7,29.90,NNW,347,4.0,5.0,77,0.00,,FEW,0.01,220.00,VWS V14.01,2013-11-01 19:16:00,
2013-11-01 15:18:00,81.4,73.5,29.90,NNW,347,3.0,5.0,77,0.00,,FEW,0.01,204.00,VWS V14.01,2013-11-01 19:18:00,
2013-11-01 15:19:00,81.4,73.5,29.90,North,355,2.0,5.0,77,0.00,,FEW,0.01,197.00,VWS V14.01,2013-11-01 19:19:00,
2013-11-01 15:21:00,81.3,73.4,29.90,North,351,4.0,4.0,77,0.00,,FEW,0.01,186.00,VWS V14.01,2013-11-01 19:21:00,
2013-11-01 15:23:00,81.3,73.4,29.90,NNW,343,3.0,6.0,77,0.00,,FEW,0.01,179.00,VWS V14.01,2013-11-01 19:23:00,
2013-11-01 15:24:00,81.2,73.3,29.90,NNW,348,3.0,6.0,77,0.00,,FEW,0.01,172.00,VWS V14.01,2013-11-01 19:24:00,
2013-11-01 15:26:00,81.3,73.8,29.90,North,355,1.0,6.0,78,0.00,,FEW,0.01,160.00,VWS V14.01,2013-11-01 19:26:00,
2013-11-01 15:28:00,81.5,74.0,29.90,North,349,0.0,6.0,78,0.00,,FEW,0.01,156.00,VWS V14.01,2013-11-01 19:28:00,
2013-11-01 15:29:00,81.6,73.7,29.90,NNW,344,3.0,6.0,77,0.00,,FEW,0.01,160.00,VWS V14.01,2013-11-01 19:29:00,
2013-11-01 15:30:00,81.6,73.7,29.90,NNW,344,0.0,6.0,77,0.00,,FEW,0.01,162.00,VWS V14.01,2013-11-01 19:30:00,
2013-11-01 15:31:00,81.6,73.7,29.90,North,360,3.0,3.0,77,0.00,,FEW,0.01,162.00,VWS V14.01,2013-11-01 19:31:00,
2013-11-01 15:33:00,81.6,74.1,29.90,NNW,348,4.0,4.0,78,0.00,,FEW,0.01,160.00,VWS V14.01,2013-11-01 19:33:00,
2013-11-01 15:34:00,81.6,74.1,29.90,North,360,2.0,4.0,78,0.00,,FEW,0.01,163.00,VWS V14.01,2013-11-01 19:34:00,
2013-11-01 15:35:00,81.5,74.0,29.90,North,355,2.0,4.0,78,0.00,,FEW,0.01,171.00,VWS V14.01,2013-11-01 19:35:00,
2013-11-01 15:36:00,81.5,74.0,29.90,North,355,1.0,4.0,78,0.00,,FEW,0.01,178.00,VWS V14.01,2013-11-01 19:36:00,
2013-11-01 15:37:00,81.5,74.0,29.90,North,355,1.0,4.0,78,0.00,,FEW,0.01,178.00,VWS V14.01,2013-11-01 19:37:00,
2013-11-01 15:38:00,81.4,73.9,29.90,North,355,3.0,4.0,78,0.00,,FEW,0.01,192.00,VWS V14.01,2013-11-01 19:38:00,
2013-11-01 15:39:00,81.3,73.4,29.90,North,355,1.0,4.0,77,0.00,,FEW,0.01,197.00,VWS V14.01,2013-11-01 19:39:00,
2013-11-01 15:40:00,81.3,73.8,29.90,North,355,0.0,1.0,78,0.00,,FEW,0.01,202.00,VWS V14.01,2013-11-01 19:40:00,
2013-11-01 15:41:00,81.4,73.9,29.90,North,5,2.0,3.0,78,0.00,,FEW,0.01,209.00,VWS V14.01,2013-11-01 19:41:00,
2013-11-01 15:42:00,81.4,73.9,29.90,NNE,26,3.0,3.0,78,0.00,,FEW,0.01,220.00,VWS V14.01,2013-11-01 19:42:00,
2013-11-01 15:43:00,81.5,73.2,29.90,NNE,32,2.0,3.0,76,0.00,,FEW,0.01,229.00,VWS V14.01,2013-11-01 19:43:00,
2013-11-01 15:45:00,81.8,73.9,29.90,NE,42,1.0,3.0,77,0.00,,FEW,0.01,237.00,VWS V14.01,2013-11-01 19:45:00,
2013-11-01 15:47:00,81.9,74.0,29.90,NNE,21,1.0,5.0,77,0.00,,FEW,0.01,227.00,VWS V14.01,2013-11-01 19:47:00,
2013-11-01 15:48:00,82.0,74.1,29.90,NNE,22,1.0,5.0,77,0.00,,FEW,0.01,221.00,VWS V14.01,2013-11-01 19:48:00,
2013-11-01 15:50:00,82.1,74.2,29.90,NNE,22,1.0,5.0,77,0.00,,FEW,0.01,220.00,VWS V14.01,2013-11-01 19:50:00,
2013-11-01 15:52:00,82.1,74.2,29.90,North,5,3.0,4.0,77,0.00,,FEW,0.01,223.00,VWS V14.01,2013-11-01 19:52:00,
2013-11-01 15:53:00,81.8,73.9,29.90,North,355,2.0,5.0,77,0.00,,FEW,0.01,229.00,VWS V14.01,2013-11-01 19:53:00,
2013-11-01 15:55:00,81.6,73.7,29.90,NNE,32,0.0,5.0,77,0.00,,FEW,0.01,232.00,VWS V14.01,2013-11-01 19:55:00,
2013-11-01 15:57:00,81.7,73.8,29.90,NE,42,1.0,5.0,77,0.00,,FEW,0.01,230.00,VWS V14.01,2013-11-01 19:57:00,
2013-11-01 15:58:00,81.7,73.8,29.90,NE,46,0.0,5.0,77,0.00,,FEW,0.01,244.00,VWS V14.01,2013-11-01 19:58:00,
2013-11-01 16:00:00,81.9,74.0,29.89,NNE,27,2.0,2.0,77,0.00,,FEW,0.01,271.00,VWS V14.01,2013-11-01 20:00:00,
2013-11-01 16:02:00,82.0,74.1,29.89,NNE,27,1.0,3.0,77,0.00,,FEW,0.01,279.00,VWS V14.01,2013-11-01 20:02:00,
2013-11-01 16:03:00,82.0,73.7,29.89,NNE,21,1.0,3.0,76,0.00,,FEW,0.01,297.00,VWS V14.01,2013-11-01 20:03:00,
2013-11-01 16:04:00,82.1,73.8,29.89,NNE,26,3.0,4.0,76,0.00,,FEW,0.01,367.00,VWS V14.01,2013-11-01 20:04:00,
2013-11-01 16:05:00,82.2,73.9,29.89,NNE,22,2.0,4.0,76,0.00,,FEW,0.01,360.00,VWS V14.01,2013-11-01 20:05:00,
2013-11-01 16:07:00,82.5,74.6,29.89,NNE,12,2.0,4.0,77,0.00,,FEW,0.01,610.00,VWS V14.01,2013-11-01 20:07:00,
2013-11-01 16:08:00,82.7,74.8,29.89,North,10,3.0,4.0,77,0.00,,FEW,0.01,610.00,VWS V14.01,2013-11-01 20:08:00,
2013-11-01 16:09:00,82.9,74.6,29.89,NE,41,2.0,4.0,76,0.00,,FEW,0.01,475.00,VWS V14.01,2013-11-01 20:09:00,
2013-11-01 16:10:00,83.0,74.7,29.89,NE,40,3.0,3.0,76,0.00,,FEW,0.01,515.00,VWS V14.01,2013-11-01 20:10:00,
2013-11-01 16:12:00,83.0,74.3,29.89,NNE,21,1.0,4.0,75,0.00,,FEW,0.01,515.00,VWS V14.01,2013-11-01 20:12:00,
2013-11-01 16:13:00,83.0,74.3,29.89,NE,44,2.0,4.0,75,0.00,,FEW,0.01,670.00,VWS V14.01,2013-11-01 20:13:00,
2013-11-01 16:14:00,83.1,74.4,29.89,NE,38,3.0,6.0,75,0.00,,FEW,0.01,624.00,VWS V14.01,2013-11-01 20:14:00,
2013-11-01 16:16:00,83.3,74.2,29.89,NE,42,3.0,6.0,74,0.00,,FEW,0.01,636.00,VWS V14.01,2013-11-01 20:16:00,
2013-11-01 16:17:00,83.2,73.7,29.89,NNE,24,1.0,6.0,73,0.00,,FEW,0.01,339.00,VWS V14.01,2013-11-01 20:17:00,
2013-11-01 16:18:00,83.1,73.6,29.89,NNE,24,2.0,6.0,73,0.00,,FEW,0.01,339.00,VWS V14.01,2013-11-01 20:18:00,
2013-11-01 16:19:00,82.9,73.8,29.89,NE,35,1.0,6.0,74,0.00,,FEW,0.01,396.00,VWS V14.01,2013-11-01 20:19:00,
2013-11-01 16:20:00,82.9,74.2,29.89,NNE,32,2.0,6.0,75,0.00,,FEW,0.01,396.00,VWS V14.01,2013-11-01 20:20:00,
2013-11-01 16:21:00,83.0,74.3,29.89,NNE,19,4.0,4.0,75,0.00,,FEW,0.01,396.00,VWS V14.01,2013-11-01 20:21:00,
2013-11-01 16:22:00,82.9,74.2,29.89,North,5,2.0,5.0,75,0.00,,FEW,0.01,552.00,VWS V14.01,2013-11-01 20:22:00,
2013-11-01 16:23:00,82.9,73.8,29.89,NNE,28,2.0,5.0,74,0.00,,FEW,0.01,552.00,VWS V14.01,2013-11-01 20:23:00,
2013-11-01 16:24:00,82.9,74.2,29.89,North,355,4.0,5.0,75,0.00,,FEW,0.01,526.00,VWS V14.01,2013-11-01 20:24:00,
2013-11-01 16:25:00,82.9,73.8,29.89,North,355,2.0,5.0,74,0.00,,FEW,0.01,526.00,VWS V14.01,2013-11-01 20:25:00,
2013-11-01 16:26:00,82.8,73.7,29.89,North,355,2.0,5.0,74,0.00,,FEW,0.01,489.00,VWS V14.01,2013-11-01 20:26:00,
2013-11-01 16:28:00,83.0,74.3,29.89,NNE,17,3.0,5.0,75,0.00,,FEW,0.01,478.00,VWS V14.01,2013-11-01 20:28:00,
2013-11-01 16:29:00,83.1,74.4,29.89,NNE,15,2.0,5.0,75,0.00,,FEW,0.01,482.00,VWS V14.01,2013-11-01 20:29:00,
2013-11-01 16:30:00,83.1,74.4,29.89,NNE,33,2.0,5.0,75,0.00,,FEW,0.01,489.00,VWS V14.01,2013-11-01 20:30:00,
2013-11-01 16:31:00,83.2,74.1,29.89,NNE,24,2.0,4.0,74,0.00,,FEW,0.01,497.00,VWS V14.01,2013-11-01 20:31:00,
2013-11-01 16:33:00,83.3,74.6,29.89,NNE,30,4.0,4.0,75,0.00,,FEW,0.01,492.00,VWS V14.01,2013-11-01 20:33:00,
2013-11-01 16:34:00,83.4,74.7,29.89,NE,37,2.0,5.0,75,0.00,,FEW,0.01,469.00,VWS V14.01,2013-11-01 20:34:00,
2013-11-01 16:35:00,83.3,74.2,29.89,NE,50,3.0,5.0,74,0.00,,FEW,0.01,469.00,VWS V14.01,2013-11-01 20:35:00,
2013-11-01 16:36:00,83.2,74.1,29.89,North,355,3.0,5.0,74,0.00,,FEW,0.01,452.00,VWS V14.01,2013-11-01 20:36:00,
2013-11-01 16:37:00,83.2,74.1,29.89,NNE,33,2.0,6.0,74,0.00,,FEW,0.01,434.00,VWS V14.01,2013-11-01 20:37:00,
2013-11-01 16:38:00,83.2,74.1,29.89,NE,36,2.0,6.0,74,0.00,,FEW,0.01,418.00,VWS V14.01,2013-11-01 20:38:00,
2013-11-01 16:39:00,83.0,73.9,29.89,NE,40,1.0,6.0,74,0.00,,FEW,0.01,404.00,VWS V14.01,2013-11-01 20:39:00,
2013-11-01 16:40:00,83.2,74.1,29.89,NNE,32,1.0,4.0,74,0.00,,FEW,0.01,387.00,VWS V14.01,2013-11-01 20:40:00,
2013-11-01 16:41:00,83.2,74.1,29.89,NNE,32,4.0,4.0,74,0.00,,FEW,0.01,381.00,VWS V14.01,2013-11-01 20:41:00,
2013-11-01 16:42:00,83.2,74.1,29.89,NE,36,1.0,4.0,74,0.00,,FEW,0.01,380.00,VWS V14.01,2013-11-01 20:42:00,
2013-11-01 16:43:00,83.2,74.1,29.89,NNE,26,1.0,4.0,74,0.00,,FEW,0.01,380.00,VWS V14.01,2013-11-01 20:43:00,
2013-11-01 16:44:00,83.1,74.4,29.89,NNE,32,3.0,4.0,75,0.00,,FEW,0.01,380.00,VWS V14.01,2013-11-01 20:44:00,
2013-11-01 16:45:00,83.0,73.9,29.89,NNE,12,1.0,5.0,74,0.00,,FEW,0.01,380.00,VWS V14.01,2013-11-01 20:45:00,
2013-11-01 16:47:00,82.9,73.8,29.89,NNE,22,4.0,5.0,74,0.00,,FEW,0.01,378.00,VWS V14.01,2013-11-01 20:47:00,
2013-11-01 16:48:00,82.7,73.2,29.89,NE,39,3.0,5.0,73,0.00,,FEW,0.01,381.00,VWS V14.01,2013-11-01 20:48:00,
2013-11-01 16:49:00,82.8,73.7,29.89,NNE,29,2.0,5.0,74,0.00,,FEW,0.01,387.00,VWS V14.01,2013-11-01 20:49:00,
2013-11-01 16:50:00,83.1,73.6,29.89,NNE,28,4.0,4.0,73,0.00,,FEW,0.01,388.00,VWS V14.01,2013-11-01 20:50:00,
2013-11-01 16:52:00,83.2,73.2,29.89,NNE,20,4.0,5.0,72,0.00,,FEW,0.01,387.00,VWS V14.01,2013-11-01 20:52:00,
2013-11-01 16:54:00,83.1,73.6,29.89,NNE,22,2.0,5.0,73,0.00,,FEW,0.01,381.00,VWS V14.01,2013-11-01 20:54:00,
2013-11-01 16:55:00,83.2,73.7,29.89,NNE,22,4.0,5.0,73,0.00,,FEW,0.01,383.00,VWS V14.01,2013-11-01 20:55:00,
2013-11-01 16:57:00,83.2,73.7,29.89,NNE,21,5.0,5.0,73,0.00,,FEW,0.01,392.00,VWS V14.01,2013-11-01 20:57:00,
2013-11-01 16:59:00,83.1,73.1,29.89,NNE,23,4.0,5.0,72,0.00,,FEW,0.01,339.00,VWS V14.01,2013-11-01 20:59:00,
2013-11-01 17:00:00,83.1,72.7,29.88,NNE,22,3.0,5.0,71,0.00,,FEW,0.01,388.00,VWS V14.01,2013-11-01 21:00:00,
2013-11-01 17:03:00,83.0,72.6,29.88,North,5,2.0,4.0,71,0.00,,FEW,0.01,388.00,VWS V14.01,2013-11-01 21:03:00,
2013-11-01 17:04:00,82.9,72.9,29.88,North,5,2.0,4.0,72,0.00,,FEW,0.01,392.00,VWS V14.01,2013-11-01 21:04:00,
2013-11-01 17:05:00,82.9,72.9,29.88,NNW,345,4.0,4.0,72,0.00,,FEW,0.01,388.00,VWS V14.01,2013-11-01 21:05:00,
2013-11-01 17:06:00,82.9,72.9,29.88,North,355,4.0,4.0,72,0.00,,FEW,0.01,388.00,VWS V14.01,2013-11-01 21:06:00,
2013-11-01 17:08:00,82.7,72.8,29.88,NNW,345,4.0,4.0,72,0.00,,FEW,0.01,381.00,VWS V14.01,2013-11-01 21:08:00,
2013-11-01 17:09:00,82.5,73.4,29.88,North,350,4.0,4.0,74,0.00,,FEW,0.01,373.00,VWS V14.01,2013-11-01 21:09:00,
2013-11-01 17:10:00,82.5,73.4,29.88,NNW,348,2.0,3.0,74,0.00,,FEW,0.01,367.00,VWS V14.01,2013-11-01 21:10:00,
2013-11-01 17:11:00,82.5,73.4,29.88,NNE,12,2.0,3.0,74,0.00,,FEW,0.01,367.00,VWS V14.01,2013-11-01 21:11:00,
2013-11-01 17:13:00,82.9,73.8,29.88,NNE,21,3.0,4.0,74,0.00,,FEW,0.01,348.00,VWS V14.01,2013-11-01 21:13:00,
2013-11-01 17:15:00,83.0,73.1,29.89,NNE,13,4.0,5.0,72,0.00,,FEW,0.01,334.00,VWS V14.01,2013-11-01 21:15:00,
2013-11-01 17:16:00,82.9,72.9,29.89,North,11,5.0,5.0,72,0.00,,FEW,0.01,329.00,VWS V14.01,2013-11-01 21:16:00,
2013-11-01 17:18:00,82.5,73.4,29.89,North,360,4.0,6.0,74,0.00,,FEW,0.01,320.00,VWS V14.01,2013-11-01 21:18:00,
2013-11-01 17:21:00,82.3,73.2,29.89,NNE,12,3.0,4.0,74,0.00,,FEW,0.01,304.00,VWS V14.01,2013-11-01 21:21:00,
2013-11-01 17:22:00,82.2,73.1,29.89,NNE,22,4.0,5.0,74,0.00,,FEW,0.01,299.00,VWS V14.01,2013-11-01 21:22:00,
2013-11-01 17:23:00,82.2,73.1,29.89,North,360,4.0,5.0,74,0.00,,FEW,0.01,290.00,VWS V14.01,2013-11-01 21:23:00,
2013-11-01 17:26:00,82.5,73.4,29.89,NE,34,2.0,5.0,74,0.00,,FEW,0.01,267.00,VWS V14.01,2013-11-01 21:26:00,
2013-11-01 17:27:00,82.5,73.4,29.89,NNE,28,1.0,5.0,74,0.00,,FEW,0.01,262.00,VWS V14.01,2013-11-01 21:27:00,
2013-11-01 17:28:00,82.6,73.1,29.89,NNE,27,1.0,5.0,73,0.00,,FEW,0.01,248.00,VWS V14.01,2013-11-01 21:28:00,
2013-11-01 17:31:00,82.9,73.8,29.89,NNE,25,1.0,2.0,74,0.00,,FEW,0.01,223.00,VWS V14.01,2013-11-01 21:31:00,
2013-11-01 17:32:00,82.9,73.4,29.89,NNE,23,2.0,2.0,73,0.00,,FEW,0.01,223.00,VWS V14.01,2013-11-01 21:32:00,
2013-11-01 17:33:00,82.7,73.2,29.89,NNE,23,0.0,2.0,73,0.00,,FEW,0.01,213.00,VWS V14.01,2013-11-01 21:33:00,
2013-11-01 17:36:00,82.5,73.4,29.89,NNE,23,0.0,2.0,74,0.00,,FEW,0.01,197.00,VWS V14.01,2013-11-01 21:36:00,
2013-11-01 17:37:00,82.6,73.5,29.89,NNE,23,0.0,2.0,74,0.00,,FEW,0.01,197.00,VWS V14.01,2013-11-01 21:37:00,
2013-11-01 17:38:00,82.8,73.3,29.89,NNE,23,1.0,2.0,73,0.00,,FEW,0.01,186.00,VWS V14.01,2013-11-01 21:38:00,
2013-11-01 17:39:00,82.7,73.2,29.89,NNE,23,0.0,2.0,73,0.00,,FEW,0.01,181.00,VWS V14.01,2013-11-01 21:39:00,
2013-11-01 17:42:00,82.6,73.5,29.89,NNE,23,1.0,4.0,74,0.00,,FEW,0.01,171.00,VWS V14.01,2013-11-01 21:42:00,
2013-11-01 17:44:00,82.3,73.2,29.89,NNE,23,2.0,4.0,74,0.00,,FEW,0.01,167.00,VWS V14.01,2013-11-01 21:44:00,
2013-11-01 17:47:00,82.0,73.3,29.88,NNE,22,3.0,4.0,75,0.00,,FEW,0.01,155.00,VWS V14.01,2013-11-01 21:47:00,
2013-11-01 17:49:00,82.1,73.4,29.88,NNE,23,2.0,4.0,75,0.00,,FEW,0.01,148.00,VWS V14.01,2013-11-01 21:49:00,
2013-11-01 17:52:00,82.2,73.1,29.88,NNE,23,0.0,2.0,74,0.00,,FEW,0.01,135.00,VWS V14.01,2013-11-01 21:52:00,
2013-11-01 17:53:00,82.2,73.1,29.88,NNE,23,1.0,2.0,74,0.00,,FEW,0.01,132.00,VWS V14.01,2013-11-01 21:53:00,
2013-11-01 17:54:00,82.1,73.0,29.88,NNE,24,0.0,3.0,74,0.00,,FEW,0.01,125.00,VWS V14.01,2013-11-01 21:54:00,
2013-11-01 17:55:00,82.1,73.4,29.88,NNE,24,1.0,3.0,75,0.00,,FEW,0.01,121.00,VWS V14.01,2013-11-01 21:55:00,
2013-11-01 17:57:00,82.0,72.9,29.88,NNE,24,1.0,3.0,74,0.00,,FEW,0.01,114.00,VWS V14.01,2013-11-01 21:57:00,
2013-11-01 17:58:00,81.9,72.8,29.88,NNE,23,1.0,3.0,74,0.00,,FEW,0.01,111.00,VWS V14.01,2013-11-01 21:58:00,
2013-11-01 17:59:00,81.8,73.1,29.88,NNE,24,1.0,3.0,75,0.00,,FEW,0.01,109.00,VWS V14.01,2013-11-01 21:59:00,
2013-11-01 18:00:00,81.7,73.0,29.88,NNE,24,2.0,3.0,75,0.00,,FEW,0.01,105.00,VWS V14.01,2013-11-01 22:00:00,
2013-11-01 18:02:00,81.6,72.9,29.88,NNE,24,2.0,2.0,75,0.00,,FEW,0.01,98.00,VWS V14.01,2013-11-01 22:02:00,
2013-11-01 18:03:00,81.6,72.9,29.88,NNE,24,1.0,2.0,75,0.00,,FEW,0.01,98.00,VWS V14.01,2013-11-01 22:03:00,
2013-11-01 18:04:00,81.6,73.3,29.88,NNE,24,0.0,2.0,76,0.00,,FEW,0.01,91.00,VWS V14.01,2013-11-01 22:04:00,
2013-11-01 18:05:00,81.6,73.3,29.88,NNE,24,1.0,2.0,76,0.00,,FEW,0.01,88.00,VWS V14.01,2013-11-01 22:05:00,
2013-11-01 18:07:00,81.5,73.2,29.88,NNE,24,1.0,2.0,76,0.00,,FEW,0.01,81.00,VWS V14.01,2013-11-01 22:07:00,
2013-11-01 18:08:00,81.4,73.1,29.88,NNE,24,2.0,2.0,76,0.00,,FEW,0.01,77.00,VWS V14.01,2013-11-01 22:08:00,
2013-11-01 18:09:00,81.3,73.0,29.88,NNE,24,2.0,2.0,76,0.00,,FEW,0.01,69.00,VWS V14.01,2013-11-01 22:09:00,
2013-11-01 18:10:00,81.2,73.3,29.88,NNE,24,0.0,3.0,77,0.00,,FEW,0.01,67.00,VWS V14.01,2013-11-01 22:10:00,
2013-11-01 18:12:00,81.2,73.7,29.88,NNE,24,1.0,3.0,78,0.00,,FEW,0.01,63.00,VWS V14.01,2013-11-01 22:12:00,
2013-11-01 18:13:00,81.2,73.7,29.88,NNE,24,0.0,3.0,78,0.00,,FEW,0.01,62.00,VWS V14.01,2013-11-01 22:13:00,
2013-11-01 18:14:00,81.1,73.2,29.89,NNE,24,2.0,3.0,77,0.00,,FEW,0.01,56.00,VWS V14.01,2013-11-01 22:14:00,
2013-11-01 18:15:00,81.0,73.1,29.89,NNE,24,1.0,3.0,77,0.00,,FEW,0.01,54.00,VWS V14.01,2013-11-01 22:15:00,
2013-11-01 18:17:00,81.0,73.1,29.89,NNE,24,1.0,3.0,77,0.00,,FEW,0.01,47.00,VWS V14.01,2013-11-01 22:17:00,
2013-11-01 18:18:00,81.0,73.5,29.89,NNE,24,0.0,3.0,78,0.00,,FEW,0.01,47.00,VWS V14.01,2013-11-01 22:18:00,
2013-11-01 18:19:00,80.9,73.4,29.89,NNE,24,1.0,3.0,78,0.00,,FEW,0.01,44.00,VWS V14.01,2013-11-01 22:19:00,
2013-11-01 18:20:00,80.9,73.4,29.89,NNE,24,2.0,2.0,78,0.00,,FEW,0.01,42.00,VWS V14.01,2013-11-01 22:20:00,
2013-11-01 18:22:00,80.8,73.7,29.89,NNE,24,1.0,2.0,79,0.00,,FEW,0.01,37.00,VWS V14.01,2013-11-01 22:22:00,
2013-11-01 18:23:00,80.8,73.7,29.89,NNE,24,1.0,2.0,79,0.00,,FEW,0.01,37.00,VWS V14.01,2013-11-01 22:23:00,
2013-11-01 18:24:00,80.9,73.8,29.89,NNE,24,0.0,2.0,79,0.00,,FEW,0.01,32.00,VWS V14.01,2013-11-01 22:24:00,
2013-11-01 18:25:00,80.9,73.4,29.89,NNE,24,1.0,2.0,78,0.00,,FEW,0.01,25.00,VWS V14.01,2013-11-01 22:25:00,
2013-11-01 18:26:00,80.9,73.8,29.89,NNE,24,1.0,2.0,79,0.00,,FEW,0.01,21.00,VWS V14.01,2013-11-01 22:26:00,
2013-11-01 18:27:00,81.0,73.9,29.89,NNE,24,0.0,2.0,79,0.00,,FEW,0.01,19.00,VWS V14.01,2013-11-01 22:27:00,
2013-11-01 18:28:00,81.0,73.9,29.89,NNE,24,2.0,2.0,79,0.00,,FEW,0.01,19.00,VWS V14.01,2013-11-01 22:28:00,
2013-11-01 18:29:00,81.1,74.0,29.89,NNE,24,0.0,2.0,79,0.00,,FEW,0.01,18.00,VWS V14.01,2013-11-01 22:29:00,
2013-11-01 18:30:00,81.1,74.0,29.90,NNE,24,1.0,2.0,79,0.00,,FEW,0.01,14.00,VWS V14.01,2013-11-01 22:30:00,
2013-11-01 18:31:00,81.1,74.0,29.90,NNE,24,1.0,1.0,79,0.00,,FEW,0.01,12.00,VWS V14.01,2013-11-01 22:31:00,
2013-11-01 18:33:00,81.1,73.6,29.90,NNE,24,0.0,1.0,78,0.00,,FEW,0.01,11.00,VWS V14.01,2013-11-01 22:33:00,
2013-11-01 18:34:00,81.1,73.6,29.90,NNE,24,1.0,1.0,78,0.00,,FEW,0.01,9.00,VWS V14.01,2013-11-01 22:34:00,
2013-11-01 18:35:00,81.1,73.6,29.90,NNE,24,1.0,1.0,78,0.00,,FEW,0.01,9.00,VWS V14.01,2013-11-01 22:35:00,
2013-11-01 18:36:00,81.1,73.6,29.90,NNE,24,0.0,1.0,78,0.00,,FEW,0.01,9.00,VWS V14.01,2013-11-01 22:36:00,
2013-11-01 18:38:00,81.1,73.6,29.90,NNE,24,0.0,1.0,78,0.00,,FEW,0.01,7.00,VWS V14.01,2013-11-01 22:38:00,
2013-11-01 18:39:00,81.1,74.0,29.90,NNE,24,0.0,1.0,79,0.00,,FEW,0.01,5.00,VWS V14.01,2013-11-01 22:39:00,
2013-11-01 18:40:00,81.1,74.0,29.90,NNE,24,0.0,1.0,79,0.00,,FEW,0.01,5.00,VWS V14.01,2013-11-01 22:40:00,
2013-11-01 18:41:00,81.1,74.0,29.90,NNE,24,1.0,2.0,79,0.00,,FEW,0.01,5.00,VWS V14.01,2013-11-01 22:41:00,
2013-11-01 18:43:00,81.1,74.0,29.90,NNE,24,0.0,2.0,79,0.00,,FEW,0.01,0.00,VWS V14.01,2013-11-01 22:43:00,
2013-11-01 18:45:00,81.1,74.0,29.90,NNE,24,0.0,2.0,79,0.00,,FEW,0.01,0.00,VWS V14.01,2013-11-01 22:45:00,
2013-11-01 18:46:00,81.1,74.0,29.90,NNE,24,0.0,2.0,79,0.00,,FEW,0.01,0.00,VWS V14.01,2013-11-01 22:46:00,
2013-11-01 18:48:00,81.0,73.9,29.90,NNE,24,0.0,2.0,79,0.00,,FEW,0.01,0.00,VWS V14.01,2013-11-01 22:48:00,
2013-11-01 18:50:00,80.9,73.8,29.90,NNE,24,0.0,2.0,79,0.00,,FEW,0.01,0.00,VWS V14.01,2013-11-01 22:50:00,
2013-11-01 18:51:00,80.9,73.8,29.90,NNE,24,0.0,0.0,79,0.00,,FEW,0.01,0.00,VWS V14.01,2013-11-01 22:51:00,
2013-11-01 18:53:00,80.8,73.7,29.90,NNE,24,0.0,1.0,79,0.00,,FEW,0.01,0.00,VWS V14.01,2013-11-01 22:53:00,
2013-11-01 18:55:00,80.8,73.7,29.90,NNE,24,0.0,1.0,79,0.00,,FEW,0.01,0.00,VWS V14.01,2013-11-01 22:55:00,
2013-11-01 18:56:00,80.8,73.7,29.90,NNE,24,1.0,1.0,79,0.00,,FEW,0.01,0.00,VWS V14.01,2013-11-01 22:56:00,
2013-11-01 18:58:00,80.7,74.0,29.90,NNE,24,0.0,1.0,80,0.00,,FEW,0.01,0.00,VWS V14.01,2013-11-01 22:58:00,
2013-11-01 19:00:00,80.6,73.9,29.90,NNE,24,0.0,2.0,80,0.00,,FEW,0.01,0.00,VWS V14.01,2013-11-01 23:00:00,
2013-11-01 19:01:00,80.6,73.9,29.90,NNE,24,0.0,0.0,80,0.00,,FEW,0.01,0.00,VWS V14.01,2013-11-01 23:01:00,
2013-11-01 19:03:00,80.5,73.8,29.90,NNE,24,0.0,0.0,80,0.00,,FEW,0.01,0.00,VWS V14.01,2013-11-01 23:03:00,
2013-11-01 19:06:00,80.4,73.7,29.90,NNE,24,0.0,0.0,80,0.00,,FEW,0.01,0.00,VWS V14.01,2013-11-01 23:06:00,
2013-11-01 19:08:00,80.4,73.7,29.90,NNE,24,0.0,0.0,80,0.00,,FEW,0.01,0.00,VWS V14.01,2013-11-01 23:08:00,
2013-11-01 19:11:00,80.3,73.9,29.90,NNE,24,0.0,0.0,81,0.00,,FEW,0.01,0.00,VWS V14.01,2013-11-01 23:11:00,
2013-11-01 19:13:00,80.3,73.9,29.90,NNE,24,0.0,0.0,81,0.00,,FEW,0.01,0.00,VWS V14.01,2013-11-01 23:13:00,
2013-11-01 19:16:00,80.2,73.8,29.90,NNE,24,0.0,0.0,81,0.00,,FEW,0.01,0.00,VWS V14.01,2013-11-01 23:16:00,
2013-11-01 19:17:00,80.2,73.8,29.90,NNE,24,0.0,0.0,81,0.00,,FEW,0.01,0.00,VWS V14.01,2013-11-01 23:17:00,
2013-11-01 19:18:00,80.2,74.2,29.90,NNE,24,0.0,0.0,82,0.00,,FEW,0.01,0.00,VWS V14.01,2013-11-01 23:18:00,
2013-11-01 19:19:00,80.1,74.1,29.90,NNE,24,0.0,0.0,82,0.00,,FEW,0.01,0.00,VWS V14.01,2013-11-01 23:19:00,
2013-11-01 19:21:00,80.0,74.0,29.90,NNE,24,1.0,1.0,82,0.00,,FEW,0.01,0.00,VWS V14.01,2013-11-01 23:21:00,
2013-11-01 19:22:00,80.0,74.0,29.90,NNE,24,0.0,1.0,82,0.00,,FEW,0.01,0.00,VWS V14.01,2013-11-01 23:22:00,
2013-11-01 19:23:00,80.0,74.0,29.90,NNE,24,0.0,1.0,82,0.00,,FEW,0.01,0.00,VWS V14.01,2013-11-01 23:23:00,
2013-11-01 19:24:00,79.9,73.9,29.90,NNE,24,0.0,1.0,82,0.00,,FEW,0.01,0.00,VWS V14.01,2013-11-01 23:24:00,
2013-11-01 19:26:00,79.9,73.9,29.90,NNE,24,0.0,1.0,82,0.00,,FEW,0.01,0.00,VWS V14.01,2013-11-01 23:26:00,
2013-11-01 19:27:00,79.8,73.8,29.90,NNE,24,0.0,1.0,82,0.00,,FEW,0.01,0.00,VWS V14.01,2013-11-01 23:27:00,
2013-11-01 19:28:00,79.8,73.8,29.90,NNE,24,0.0,1.0,82,0.00,,FEW,0.01,0.00,VWS V14.01,2013-11-01 23:28:00,
2013-11-01 19:29:00,79.8,73.8,29.90,NNE,24,0.0,1.0,82,0.00,,FEW,0.01,0.00,VWS V14.01,2013-11-01 23:29:00,
2013-11-01 19:31:00,79.7,73.7,29.90,NNE,24,0.0,0.0,82,0.00,,FEW,0.01,0.00,VWS V14.01,2013-11-01 23:31:00,
2013-11-01 19:33:00,79.7,73.7,29.90,NNE,24,0.0,0.0,82,0.00,,FEW,0.01,0.00,VWS V14.01,2013-11-01 23:33:00,
2013-11-01 19:34:00,79.6,73.6,29.90,NNE,24,0.0,0.0,82,0.00,,FEW,0.01,0.00,VWS V14.01,2013-11-01 23:34:00,
2013-11-01 19:36:00,79.6,73.6,29.90,NNE,24,0.0,0.0,82,0.00,,FEW,0.01,0.00,VWS V14.01,2013-11-01 23:36:00,
2013-11-01 19:38:00,79.5,73.9,29.90,NNE,24,0.0,0.0,83,0.00,,FEW,0.01,0.00,VWS V14.01,2013-11-01 23:38:00,
2013-11-01 19:39:00,79.5,73.9,29.90,NNE,24,0.0,0.0,83,0.00,,FEW,0.01,0.00,VWS V14.01,2013-11-01 23:39:00,
2013-11-01 19:40:00,79.4,73.8,29.90,NNE,24,0.0,0.0,83,0.00,,FEW,0.01,0.00,VWS V14.01,2013-11-01 23:40:00,
2013-11-01 19:41:00,79.4,73.8,29.90,NNE,24,0.0,0.0,83,0.00,,FEW,0.01,0.00,VWS V14.01,2013-11-01 23:41:00,
2013-11-01 19:43:00,79.4,73.8,29.90,NNE,24,0.0,0.0,83,0.00,,FEW,0.01,0.00,VWS V14.01,2013-11-01 23:43:00,
2013-11-01 19:44:00,79.3,73.7,29.90,NNE,24,0.0,0.0,83,0.00,,FEW,0.01,0.00,VWS V14.01,2013-11-01 23:44:00,
2013-11-01 19:45:00,79.3,73.7,29.91,NNE,24,0.0,0.0,83,0.00,,FEW,0.01,0.00,VWS V14.01,2013-11-01 23:45:00,
2013-11-01 19:46:00,79.3,73.7,29.91,NNE,24,0.0,0.0,83,0.00,,FEW,0.01,0.00,VWS V14.01,2013-11-01 23:46:00,
2013-11-01 19:48:00,79.2,73.6,29.91,NNE,24,0.0,0.0,83,0.00,,FEW,0.01,0.00,VWS V14.01,2013-11-01 23:48:00,
2013-11-01 19:49:00,79.2,73.6,29.91,NNE,24,0.0,0.0,83,0.00,,FEW,0.01,0.00,VWS V14.01,2013-11-01 23:49:00,
2013-11-01 19:50:00,79.1,73.5,29.91,NNE,24,0.0,0.0,83,0.00,,FEW,0.01,0.00,VWS V14.01,2013-11-01 23:50:00,
2013-11-01 19:51:00,79.1,73.5,29.91,NNE,24,0.0,0.0,83,0.00,,FEW,0.01,0.00,VWS V14.01,2013-11-01 23:51:00,
2013-11-01 19:53:00,79.0,73.4,29.91,NNE,24,0.0,0.0,83,0.00,,FEW,0.01,0.00,VWS V14.01,2013-11-01 23:53:00,
2013-11-01 19:54:00,79.0,73.4,29.91,NNE,24,0.0,0.0,83,0.00,,FEW,0.01,0.00,VWS V14.01,2013-11-01 23:54:00,
2013-11-01 19:55:00,79.0,73.4,29.91,NNE,24,0.0,0.0,83,0.00,,FEW,0.01,0.00,VWS V14.01,2013-11-01 23:55:00,
2013-11-01 19:56:00,79.0,73.4,29.91,NNE,24,0.0,0.0,83,0.00,,FEW,0.01,0.00,VWS V14.01,2013-11-01 23:56:00,
2013-11-01 19:59:00,78.9,73.7,29.91,NNE,24,0.0,0.0,84,0.00,,FEW,0.01,0.00,VWS V14.01,2013-11-01 23:59:00,
2013-11-01 20:01:00,78.9,73.7,29.91,NNE,24,0.0,0.0,84,0.00,,FEW,0.01,0.00,VWS V14.01,2013-11-02 00:01:00,
2013-11-01 20:02:00,78.8,73.6,29.91,NNE,24,0.0,0.0,84,0.00,,FEW,0.01,0.00,VWS V14.01,2013-11-02 00:02:00,
2013-11-01 20:04:00,78.8,73.6,29.91,NNE,24,0.0,0.0,84,0.00,,FEW,0.01,0.00,VWS V14.01,2013-11-02 00:04:00,
2013-11-01 20:05:00,78.8,73.6,29.91,NNE,24,0.0,0.0,84,0.00,,FEW,0.01,0.00,VWS V14.01,2013-11-02 00:05:00,
2013-11-01 20:06:00,78.8,73.6,29.91,NNE,24,0.0,0.0,84,0.00,,FEW,0.01,0.00,VWS V14.01,2013-11-02 00:06:00,
2013-11-01 20:07:00,78.8,73.6,29.91,NNE,24,0.0,0.0,84,0.00,,FEW,0.01,0.00,VWS V14.01,2013-11-02 00:07:00,
2013-11-01 20:09:00,78.7,73.5,29.91,NNE,24,0.0,0.0,84,0.00,,FEW,0.01,0.00,VWS V14.01,2013-11-02 00:09:00,
2013-11-01 20:10:00,78.7,73.5,29.91,NNE,24,0.0,0.0,84,0.00,,FEW,0.01,0.00,VWS V14.01,2013-11-02 00:10:00,
2013-11-01 20:11:00,78.7,73.5,29.91,NNE,24,0.0,0.0,84,0.00,,FEW,0.01,0.00,VWS V14.01,2013-11-02 00:11:00,
2013-11-01 20:12:00,78.6,73.4,29.91,NNE,24,0.0,0.0,84,0.00,,FEW,0.01,0.00,VWS V14.01,2013-11-02 00:12:00,
2013-11-01 20:14:00,78.6,73.7,29.91,NNE,24,0.0,0.0,85,0.00,,FEW,0.01,0.00,VWS V14.01,2013-11-02 00:14:00,
2013-11-01 20:15:00,78.6,73.7,29.91,NNE,24,0.0,0.0,85,0.00,,FEW,0.01,0.00,VWS V14.01,2013-11-02 00:15:00,
2013-11-01 20:16:00,78.5,73.6,29.91,NNE,24,0.0,0.0,85,0.00,,FEW,0.01,0.00,VWS V14.01,2013-11-02 00:16:00,
2013-11-01 20:17:00,78.5,73.6,29.91,NNE,24,0.0,0.0,85,0.00,,FEW,0.01,0.00,VWS V14.01,2013-11-02 00:17:00,
2013-11-01 20:20:00,78.4,73.5,29.91,NNE,24,0.0,0.0,85,0.00,,FEW,0.01,0.00,VWS V14.01,2013-11-02 00:20:00,
2013-11-01 20:21:00,78.4,73.5,29.91,NNE,24,0.0,0.0,85,0.00,,FEW,0.01,0.00,VWS V14.01,2013-11-02 00:21:00,
2013-11-01 20:22:00,78.4,73.5,29.91,NNE,24,0.0,0.0,85,0.00,,FEW,0.01,0.00,VWS V14.01,2013-11-02 00:22:00,
2013-11-01 20:25:00,78.3,73.4,29.91,NNE,24,0.0,0.0,85,0.00,,FEW,0.01,0.00,VWS V14.01,2013-11-02 00:25:00,
2013-11-01 20:26:00,78.3,73.4,29.91,NNE,24,0.0,0.0,85,0.00,,FEW,0.01,0.00,VWS V14.01,2013-11-02 00:26:00,
2013-11-01 20:27:00,78.2,73.3,29.91,NNE,24,0.0,0.0,85,0.00,,FEW,0.01,0.00,VWS V14.01,2013-11-02 00:27:00,
2013-11-01 20:30:00,78.2,73.3,29.92,NNE,24,0.0,0.0,85,0.00,,FEW,0.01,0.00,VWS V14.01,2013-11-02 00:30:00,
2013-11-01 20:31:00,78.2,73.3,29.92,NNE,24,0.0,0.0,85,0.00,,FEW,0.01,0.00,VWS V14.01,2013-11-02 00:31:00,
2013-11-01 20:32:00,78.1,73.2,29.92,NNE,24,0.0,0.0,85,0.00,,FEW,0.01,0.00,VWS V14.01,2013-11-02 00:32:00,
2013-11-01 20:35:00,78.1,73.2,29.92,NNE,24,0.0,0.0,85,0.00,,FEW,0.01,0.00,VWS V14.01,2013-11-02 00:35:00,
2013-11-01 20:36:00,78.1,73.2,29.92,NNE,24,0.0,0.0,85,0.00,,FEW,0.01,0.00,VWS V14.01,2013-11-02 00:36:00,
2013-11-01 20:37:00,78.0,73.1,29.92,NNE,24,0.0,0.0,85,0.00,,FEW,0.01,0.00,VWS V14.01,2013-11-02 00:37:00,
2013-11-01 20:40:00,78.0,73.5,29.92,NNE,24,0.0,0.0,86,0.00,,FEW,0.01,0.00,VWS V14.01,2013-11-02 00:40:00,
2013-11-01 20:41:00,78.0,73.5,29.92,NNE,24,0.0,0.0,86,0.00,,FEW,0.01,0.00,VWS V14.01,2013-11-02 00:41:00,
2013-11-01 20:42:00,78.0,73.5,29.92,NNE,24,0.0,0.0,86,0.00,,FEW,0.01,0.00,VWS V14.01,2013-11-02 00:42:00,
2013-11-01 20:43:00,78.0,73.5,29.92,NNE,24,0.0,0.0,86,0.00,,FEW,0.01,0.00,VWS V14.01,2013-11-02 00:43:00,
2013-11-01 20:45:00,78.0,73.8,29.93,NNE,24,0.0,0.0,87,0.00,,FEW,0.01,0.00,VWS V14.01,2013-11-02 00:45:00,
2013-11-01 20:46:00,78.0,73.8,29.93,NNE,24,0.0,0.0,87,0.00,,FEW,0.01,0.00,VWS V14.01,2013-11-02 00:46:00,
2013-11-01 20:47:00,78.0,73.8,29.93,NNE,24,0.0,0.0,87,0.00,,FEW,0.01,0.00,VWS V14.01,2013-11-02 00:47:00,
2013-11-01 20:48:00,77.9,73.7,29.93,NNE,24,0.0,0.0,87,0.00,,FEW,0.01,0.00,VWS V14.01,2013-11-02 00:48:00,
2013-11-01 20:51:00,78.0,73.8,29.93,NNE,24,0.0,0.0,87,0.00,,FEW,0.01,0.00,VWS V14.01,2013-11-02 00:51:00,
2013-11-01 20:52:00,78.0,73.8,29.93,NNE,24,0.0,0.0,87,0.00,,FEW,0.01,0.00,VWS V14.01,2013-11-02 00:52:00,
2013-11-01 20:54:00,77.9,73.7,29.93,NNE,24,0.0,0.0,87,0.00,,FEW,0.01,0.00,VWS V14.01,2013-11-02 00:54:00,
2013-11-01 20:56:00,77.9,73.7,29.93,NNE,24,0.0,0.0,87,0.00,,FEW,0.01,0.00,VWS V14.01,2013-11-02 00:56:00,
2013-11-01 20:57:00,77.9,73.7,29.93,NNE,24,0.0,0.0,87,0.00,,FEW,0.01,0.00,VWS V14.01,2013-11-02 00:57:00,
2013-11-01 21:00:00,77.8,73.6,29.93,NNE,24,0.0,0.0,87,0.00,,FEW,0.01,0.00,VWS V14.01,2013-11-02 01:00:00,
2013-11-01 21:01:00,77.8,73.6,29.93,NNE,24,0.0,0.0,87,0.00,,FEW,0.01,0.00,VWS V14.01,2013-11-02 01:01:00,
2013-11-01 21:02:00,77.8,73.6,29.93,NNE,24,0.0,0.0,87,0.00,,FEW,0.01,0.00,VWS V14.01,2013-11-02 01:02:00,
2013-11-01 21:03:00,77.8,73.6,29.93,NNE,24,0.0,0.0,87,0.00,,FEW,0.01,0.00,VWS V14.01,2013-11-02 01:03:00,
2013-11-01 21:05:00,77.7,73.5,29.93,NNE,24,0.0,0.0,87,0.00,,FEW,0.01,0.00,VWS V14.01,2013-11-02 01:05:00,
2013-11-01 21:06:00,77.7,73.9,29.93,NNE,24,0.0,0.0,88,0.00,,FEW,0.01,0.00,VWS V14.01,2013-11-02 01:06:00,
2013-11-01 21:07:00,77.7,73.9,29.93,NNE,24,0.0,0.0,88,0.00,,FEW,0.01,0.00,VWS V14.01,2013-11-02 01:07:00,
2013-11-01 21:08:00,77.7,73.9,29.93,NNE,24,0.0,0.0,88,0.00,,FEW,0.01,0.00,VWS V14.01,2013-11-02 01:08:00,
2013-11-01 21:10:00,77.7,73.9,29.93,NNE,24,0.0,0.0,88,0.00,,FEW,0.01,0.00,VWS V14.01,2013-11-02 01:10:00,
2013-11-01 21:11:00,77.6,73.8,29.93,NNE,24,0.0,0.0,88,0.00,,FEW,0.01,0.00,VWS V14.01,2013-11-02 01:11:00,
2013-11-01 21:12:00,77.6,73.8,29.93,NNE,24,0.0,0.0,88,0.00,,FEW,0.01,0.00,VWS V14.01,2013-11-02 01:12:00,
2013-11-01 21:13:00,77.6,73.8,29.93,NNE,24,0.0,0.0,88,0.00,,FEW,0.01,0.00,VWS V14.01,2013-11-02 01:13:00,
2013-11-01 21:15:00,77.6,73.8,29.93,NNE,24,0.0,0.0,88,0.00,,FEW,0.01,0.00,VWS V14.01,2013-11-02 01:15:00,
2013-11-01 21:16:00,77.6,73.8,29.93,NNE,24,0.0,0.0,88,0.00,,FEW,0.01,0.00,VWS V14.01,2013-11-02 01:16:00,
2013-11-01 21:17:00,77.6,73.8,29.93,NNE,24,0.0,0.0,88,0.00,,FEW,0.01,0.00,VWS V14.01,2013-11-02 01:17:00,
2013-11-01 21:18:00,77.5,73.7,29.93,NNE,24,0.0,0.0,88,0.00,,FEW,0.01,0.00,VWS V14.01,2013-11-02 01:18:00,
2013-11-01 21:21:00,77.5,73.7,29.93,NNE,24,0.0,0.0,88,0.00,,FEW,0.01,0.00,VWS V14.01,2013-11-02 01:21:00,
2013-11-01 21:22:00,77.5,73.7,29.93,NNE,24,0.0,0.0,88,0.00,,FEW,0.01,0.00,VWS V14.01,2013-11-02 01:22:00,
2013-11-01 21:23:00,77.5,73.7,29.93,NNE,24,0.0,0.0,88,0.00,,FEW,0.01,0.00,VWS V14.01,2013-11-02 01:23:00,
2013-11-01 21:26:00,77.4,73.6,29.93,NNE,24,0.0,0.0,88,0.00,,FEW,0.01,0.00,VWS V14.01,2013-11-02 01:26:00,
2013-11-01 21:27:00,77.4,73.9,29.93,NNE,24,0.0,0.0,89,0.00,,FEW,0.01,0.00,VWS V14.01,2013-11-02 01:27:00,
2013-11-01 21:28:00,77.5,74.0,29.93,NNE,24,0.0,0.0,89,0.00,,FEW,0.01,0.00,VWS V14.01,2013-11-02 01:28:00,
2013-11-01 21:31:00,77.4,73.9,29.93,NNE,24,0.0,0.0,89,0.00,,FEW,0.01,0.00,VWS V14.01,2013-11-02 01:31:00,
2013-11-01 21:32:00,77.4,73.9,29.93,NNE,24,0.0,0.0,89,0.00,,FEW,0.01,0.00,VWS V14.01,2013-11-02 01:32:00,
2013-11-01 21:33:00,77.4,73.9,29.93,NNE,24,0.0,0.0,89,0.00,,FEW,0.01,0.00,VWS V14.01,2013-11-02 01:33:00,
2013-11-01 21:34:00,77.4,73.9,29.93,NNE,24,0.0,0.0,89,0.00,,FEW,0.01,0.00,VWS V14.01,2013-11-02 01:34:00,
2013-11-01 21:36:00,77.4,73.9,29.93,NNE,24,0.0,0.0,89,0.00,,FEW,0.01,0.00,VWS V14.01,2013-11-02 01:36:00,
2013-11-01 21:37:00,77.4,73.9,29.93,NNE,24,0.0,0.0,89,0.00,,FEW,0.01,0.00,VWS V14.01,2013-11-02 01:37:00,
2013-11-01 21:38:00,77.4,73.9,29.93,NNE,24,0.0,0.0,89,0.00,,FEW,0.01,0.00,VWS V14.01,2013-11-02 01:38:00,
2013-11-01 21:39:00,77.4,73.9,29.93,NNE,24,0.0,0.0,89,0.00,,FEW,0.01,0.00,VWS V14.01,2013-11-02 01:39:00,
2013-11-01 21:41:00,77.4,73.9,29.93,NNE,24,0.0,0.0,89,0.00,,FEW,0.01,0.00,VWS V14.01,2013-11-02 01:41:00,
2013-11-01 21:42:00,77.4,73.9,29.93,NNE,24,0.0,0.0,89,0.00,,FEW,0.01,0.00,VWS V14.01,2013-11-02 01:42:00,
2013-11-01 21:43:00,77.4,73.9,29.93,NNE,24,0.0,0.0,89,0.00,,FEW,0.01,0.00,VWS V14.01,2013-11-02 01:43:00,
2013-11-01 21:44:00,77.4,73.9,29.93,NNE,24,0.0,0.0,89,0.00,,FEW,0.01,0.00,VWS V14.01,2013-11-02 01:44:00,
2013-11-01 21:46:00,77.3,73.8,29.93,NNE,24,0.0,0.0,89,0.00,,FEW,0.01,0.00,VWS V14.01,2013-11-02 01:46:00,
2013-11-01 21:47:00,77.3,73.8,29.93,NNE,24,0.0,0.0,89,0.00,,FEW,0.01,0.00,VWS V14.01,2013-11-02 01:47:00,
2013-11-01 21:48:00,77.3,73.8,29.93,NNE,24,0.0,0.0,89,0.00,,FEW,0.01,0.00,VWS V14.01,2013-11-02 01:48:00,
2013-11-01 21:49:00,77.3,73.8,29.93,NNE,24,0.0,0.0,89,0.00,,FEW,0.01,0.00,VWS V14.01,2013-11-02 01:49:00,
2013-11-01 21:51:00,77.3,74.1,29.93,NNE,24,0.0,0.0,90,0.00,,FEW,0.01,0.00,VWS V14.01,2013-11-02 01:51:00,
2013-11-01 21:52:00,77.3,74.1,29.93,NNE,24,0.0,0.0,90,0.00,,FEW,0.01,0.00,VWS V14.01,2013-11-02 01:52:00,
2013-11-01 21:53:00,77.2,74.0,29.93,NNE,24,0.0,0.0,90,0.00,,FEW,0.01,0.00,VWS V14.01,2013-11-02 01:53:00,
2013-11-01 21:54:00,77.2,74.0,29.93,NNE,24,0.0,0.0,90,0.00,,FEW,0.01,0.00,VWS V14.01,2013-11-02 01:54:00,
2013-11-01 21:55:00,77.2,74.0,29.93,NNE,24,0.0,0.0,90,0.00,,FEW,0.01,0.00,VWS V14.01,2013-11-02 01:55:00,
2013-11-01 21:56:00,77.2,74.0,29.93,NNE,24,0.0,0.0,90,0.00,,FEW,0.01,0.00,VWS V14.01,2013-11-02 01:56:00,
2013-11-01 21:57:00,77.2,74.0,29.93,NNE,24,0.0,0.0,90,0.00,,FEW,0.01,0.00,VWS V14.01,2013-11-02 01:57:00,
2013-11-01 21:58:00,77.1,73.9,29.93,NNE,24,0.0,0.0,90,0.00,,FEW,0.01,0.00,VWS V14.01,2013-11-02 01:58:00,
2013-11-01 21:59:00,77.1,73.9,29.93,NNE,24,0.0,0.0,90,0.00,,FEW,0.01,0.00,VWS V14.01,2013-11-02 01:59:00,
2013-11-01 22:00:00,77.1,73.9,29.93,NNE,24,0.0,0.0,90,0.00,,FEW,0.01,0.00,VWS V14.01,2013-11-02 02:00:00,
2013-11-01 22:01:00,77.1,73.9,29.93,NNE,24,0.0,0.0,90,0.00,,FEW,0.01,0.00,VWS V14.01,2013-11-02 02:01:00,
2013-11-01 22:03:00,77.1,73.9,29.93,NNE,24,0.0,0.0,90,0.00,,FEW,0.01,0.00,VWS V14.01,2013-11-02 02:03:00,
2013-11-01 22:05:00,77.0,73.8,29.93,NNE,24,0.0,0.0,90,0.00,,FEW,0.01,0.00,VWS V14.01,2013-11-02 02:05:00,
2013-11-01 22:06:00,77.0,73.8,29.93,NNE,24,0.0,0.0,90,0.00,,FEW,0.01,0.00,VWS V14.01,2013-11-02 02:06:00,
2013-11-01 22:08:00,77.0,73.8,29.93,NNE,24,0.0,0.0,90,0.00,,FEW,0.01,0.00,VWS V14.01,2013-11-02 02:08:00,
2013-11-01 22:09:00,76.9,73.8,29.93,NNE,24,0.0,0.0,90,0.00,,FEW,0.01,0.00,VWS V14.01,2013-11-02 02:09:00,
2013-11-01 22:10:00,76.9,73.8,29.93,NNE,24,0.0,0.0,90,0.00,,FEW,0.01,0.00,VWS V14.01,2013-11-02 02:10:00,
2013-11-01 22:11:00,76.9,73.8,29.93,NNE,24,0.0,0.0,90,0.00,,FEW,0.01,0.00,VWS V14.01,2013-11-02 02:11:00,
2013-11-01 22:13:00,76.9,73.8,29.93,NNE,24,0.0,0.0,90,0.00,,FEW,0.01,0.00,VWS V14.01,2013-11-02 02:13:00,
2013-11-01 22:14:00,76.9,73.8,29.93,NNE,24,0.0,0.0,90,0.00,,FEW,0.01,0.00,VWS V14.01,2013-11-02 02:14:00,
2013-11-01 22:15:00,76.8,73.7,29.93,NNE,24,0.0,0.0,90,0.00,,FEW,0.01,0.00,VWS V14.01,2013-11-02 02:15:00,
2013-11-01 22:16:00,76.8,73.7,29.93,NNE,24,0.0,1.0,90,0.00,,FEW,0.01,0.00,VWS V14.01,2013-11-02 02:16:00,
2013-11-01 22:18:00,76.7,73.6,29.93,NNE,24,0.0,1.0,90,0.00,,FEW,0.01,0.00,VWS V14.01,2013-11-02 02:18:00,
2013-11-01 22:19:00,76.7,73.6,29.93,NNE,24,0.0,1.0,90,0.00,,FEW,0.01,0.00,VWS V14.01,2013-11-02 02:19:00,
2013-11-01 22:20:00,76.7,73.6,29.93,NNE,24,0.0,1.0,90,0.00,,FEW,0.01,0.00,VWS V14.01,2013-11-02 02:20:00,
2013-11-01 22:22:00,76.7,73.6,29.93,NNE,24,0.0,1.0,90,0.00,,FEW,0.01,0.00,VWS V14.01,2013-11-02 02:22:00,
2013-11-01 22:24:00,76.7,73.6,29.93,NNE,24,0.0,1.0,90,0.00,,FEW,0.01,0.00,VWS V14.01,2013-11-02 02:24:00,
2013-11-01 22:25:00,76.7,73.6,29.93,NNE,24,0.0,1.0,90,0.00,,FEW,0.01,0.00,VWS V14.01,2013-11-02 02:25:00,
2013-11-01 22:26:00,76.7,73.6,29.93,NNE,24,0.0,1.0,90,0.00,,FEW,0.01,0.00,VWS V14.01,2013-11-02 02:26:00,
2013-11-01 22:27:00,76.6,73.4,29.93,NNE,24,0.0,1.0,90,0.00,,FEW,0.01,0.00,VWS V14.01,2013-11-02 02:27:00,
2013-11-01 22:29:00,76.6,73.4,29.93,NNE,24,0.0,1.0,90,0.00,,FEW,0.01,0.00,VWS V14.01,2013-11-02 02:29:00,
2013-11-01 22:30:00,76.6,73.4,29.93,NNE,24,0.0,1.0,90,0.00,,FEW,0.01,0.00,VWS V14.01,2013-11-02 02:30:00,
2013-11-01 22:31:00,76.6,73.4,29.93,NNE,24,0.0,0.0,90,0.00,,FEW,0.01,0.00,VWS V14.01,2013-11-02 02:31:00,
2013-11-01 22:32:00,76.5,73.3,29.93,NNE,24,0.0,0.0,90,0.00,,FEW,0.01,0.00,VWS V14.01,2013-11-02 02:32:00,
2013-11-01 22:34:00,76.5,73.3,29.93,NNE,24,0.0,0.0,90,0.00,,FEW,0.01,0.00,VWS V14.01,2013-11-02 02:34:00,
2013-11-01 22:35:00,76.5,73.3,29.93,NNE,24,0.0,0.0,90,0.00,,FEW,0.01,0.00,VWS V14.01,2013-11-02 02:35:00,
2013-11-01 22:36:00,76.5,73.3,29.93,NNE,24,0.0,1.0,90,0.00,,FEW,0.01,0.00,VWS V14.01,2013-11-02 02:36:00,
2013-11-01 22:37:00,76.4,73.2,29.93,NNE,24,0.0,1.0,90,0.00,,FEW,0.01,0.00,VWS V14.01,2013-11-02 02:37:00,
2013-11-01 22:39:00,76.4,73.2,29.93,NNE,24,0.0,1.0,90,0.00,,FEW,0.01,0.00,VWS V14.01,2013-11-02 02:39:00,
2013-11-01 22:40:00,76.4,73.2,29.93,NNE,24,0.0,1.0,90,0.00,,FEW,0.01,0.00,VWS V14.01,2013-11-02 02:40:00,
2013-11-01 22:41:00,76.4,73.2,29.93,NNE,24,0.0,0.0,90,0.00,,FEW,0.01,0.00,VWS V14.01,2013-11-02 02:41:00,
2013-11-01 22:42:00,76.4,73.2,29.93,NNE,24,0.0,0.0,90,0.00,,FEW,0.01,0.00,VWS V14.01,2013-11-02 02:42:00,
2013-11-01 22:44:00,76.3,73.2,29.93,NNE,24,0.0,0.0,90,0.00,,FEW,0.01,0.00,VWS V14.01,2013-11-02 02:44:00,
2013-11-01 22:45:00,76.3,73.2,29.93,NNE,24,0.0,0.0,90,0.00,,FEW,0.01,0.00,VWS V14.01,2013-11-02 02:45:00,
2013-11-01 22:46:00,76.3,73.2,29.93,NNE,24,0.0,0.0,90,0.00,,FEW,0.01,0.00,VWS V14.01,2013-11-02 02:46:00,
2013-11-01 22:48:00,76.2,73.1,29.93,NNE,24,0.0,0.0,90,0.00,,FEW,0.01,0.00,VWS V14.01,2013-11-02 02:48:00,
2013-11-01 22:49:00,76.2,73.1,29.93,NNE,24,0.0,0.0,90,0.00,,FEW,0.01,0.00,VWS V14.01,2013-11-02 02:49:00,
2013-11-01 22:50:00,76.2,73.1,29.93,NNE,24,0.0,0.0,90,0.00,,FEW,0.01,0.00,VWS V14.01,2013-11-02 02:50:00,
2013-11-01 22:52:00,76.2,73.1,29.93,NNE,24,0.0,0.0,90,0.00,,FEW,0.01,0.00,VWS V14.01,2013-11-02 02:52:00,
2013-11-01 22:53:00,76.2,73.1,29.93,NNE,24,0.0,0.0,90,0.00,,FEW,0.01,0.00,VWS V14.01,2013-11-02 02:53:00,
2013-11-01 22:54:00,76.1,73.0,29.93,NNE,24,0.0,0.0,90,0.00,,FEW,0.01,0.00,VWS V14.01,2013-11-02 02:54:00,
2013-11-01 22:55:00,76.1,73.0,29.93,NNE,24,0.0,0.0,90,0.00,,FEW,0.01,0.00,VWS V14.01,2013-11-02 02:55:00,
2013-11-01 22:57:00,76.1,73.0,29.93,NNE,24,0.0,0.0,90,0.00,,FEW,0.01,0.00,VWS V14.01,2013-11-02 02:57:00,
2013-11-01 22:58:00,76.0,72.9,29.93,NNE,24,0.0,0.0,90,0.00,,FEW,0.01,0.00,VWS V14.01,2013-11-02 02:58:00,
2013-11-01 23:00:00,76.0,72.9,29.93,NNE,24,0.0,0.0,90,0.00,,FEW,0.01,0.00,VWS V14.01,2013-11-02 03:00:00,
2013-11-01 23:01:00,76.0,72.9,29.93,NNE,24,0.0,0.0,90,0.00,,FEW,0.01,0.00,VWS V14.01,2013-11-02 03:01:00,
2013-11-01 23:02:00,76.0,72.9,29.93,NNE,24,0.0,0.0,90,0.00,,FEW,0.01,0.00,VWS V14.01,2013-11-02 03:02:00,
2013-11-01 23:03:00,76.0,72.9,29.93,NNE,24,0.0,0.0,90,0.00,,FEW,0.01,0.00,VWS V14.01,2013-11-02 03:03:00,
2013-11-01 23:05:00,76.0,72.9,29.93,NNE,24,0.0,0.0,90,0.00,,FEW,0.01,0.00,VWS V14.01,2013-11-02 03:05:00,
2013-11-01 23:06:00,76.0,72.9,29.93,NNE,24,0.0,0.0,90,0.00,,FEW,0.01,0.00,VWS V14.01,2013-11-02 03:06:00,
2013-11-01 23:07:00,76.0,72.9,29.93,NNE,24,0.0,0.0,90,0.00,,FEW,0.01,0.00,VWS V14.01,2013-11-02 03:07:00,
2013-11-01 23:08:00,76.0,72.9,29.93,NNE,24,0.0,0.0,90,0.00,,FEW,0.01,0.00,VWS V14.01,2013-11-02 03:08:00,
2013-11-01 23:11:00,76.0,72.9,29.93,NNE,24,0.0,0.0,90,0.00,,FEW,0.01,0.00,VWS V14.01,2013-11-02 03:11:00,
2013-11-01 23:12:00,75.9,72.8,29.93,NNE,24,0.0,0.0,90,0.00,,FEW,0.01,0.00,VWS V14.01,2013-11-02 03:12:00,
2013-11-01 23:13:00,76.0,72.9,29.93,NNE,24,0.0,0.0,90,0.00,,FEW,0.01,0.00,VWS V14.01,2013-11-02 03:13:00,
2013-11-01 23:16:00,76.0,72.9,29.93,NNE,24,0.0,0.0,90,0.00,,FEW,0.01,0.00,VWS V14.01,2013-11-02 03:16:00,
2013-11-01 23:17:00,76.0,72.9,29.93,NNE,24,0.0,0.0,90,0.00,,FEW,0.01,0.00,VWS V14.01,2013-11-02 03:17:00,
2013-11-01 23:18:00,76.0,72.9,29.93,NNE,24,0.0,0.0,90,0.00,,FEW,0.01,0.00,VWS V14.01,2013-11-02 03:18:00,
2013-11-01 23:21:00,76.0,72.9,29.93,NNE,24,0.0,0.0,90,0.00,,FEW,0.01,0.00,VWS V14.01,2013-11-02 03:21:00,
2013-11-01 23:23:00,76.0,72.9,29.93,NNE,24,0.0,0.0,90,0.00,,FEW,0.01,0.00,VWS V14.01,2013-11-02 03:23:00,
2013-11-01 23:26:00,76.0,72.9,29.93,NNE,24,0.0,0.0,90,0.00,,FEW,0.01,0.00,VWS V14.01,2013-11-02 03:26:00,
2013-11-01 23:27:00,76.0,72.9,29.93,NNE,24,0.0,0.0,90,0.00,,FEW,0.01,0.00,VWS V14.01,2013-11-02 03:27:00,
2013-11-01 23:28:00,76.0,72.9,29.93,NNE,24,0.0,0.0,90,0.00,,FEW,0.01,0.00,VWS V14.01,2013-11-02 03:28:00,
2013-11-01 23:31:00,76.0,72.9,29.93,NNE,24,0.0,0.0,90,0.00,,FEW,0.01,0.00,VWS V14.01,2013-11-02 03:31:00,
2013-11-01 23:32:00,75.9,72.8,29.93,NNE,24,0.0,0.0,90,0.00,,FEW,0.01,0.00,VWS V14.01,2013-11-02 03:32:00,
2013-11-01 23:33:00,75.9,72.8,29.93,NNE,24,0.0,0.0,90,0.00,,FEW,0.01,0.00,VWS V14.01,2013-11-02 03:33:00,
2013-11-01 23:34:00,75.9,72.8,29.93,NNE,24,0.0,0.0,90,0.00,,FEW,0.01,0.00,VWS V14.01,2013-11-02 03:34:00,
2013-11-01 23:36:00,75.9,72.8,29.93,NNE,24,0.0,0.0,90,0.00,,FEW,0.01,0.00,VWS V14.01,2013-11-02 03:36:00,
2013-11-01 23:37:00,75.9,72.8,29.93,NNE,24,0.0,0.0,90,0.00,,FEW,0.01,0.00,VWS V14.01,2013-11-02 03:37:00,
2013-11-01 23:38:00,75.9,72.8,29.93,NNE,24,0.0,0.0,90,0.00,,FEW,0.01,0.00,VWS V14.01,2013-11-02 03:38:00,
2013-11-01 23:39:00,75.8,72.7,29.93,NNE,24,0.0,0.0,90,0.00,,FEW,0.01,0.00,VWS V14.01,2013-11-02 03:39:00,
2013-11-01 23:41:00,75.8,72.7,29.93,NNE,24,0.0,0.0,90,0.00,,FEW,0.01,0.00,VWS V14.01,2013-11-02 03:41:00,
2013-11-01 23:42:00,75.8,72.7,29.93,NNE,24,0.0,0.0,90,0.00,,FEW,0.01,0.00,VWS V14.01,2013-11-02 03:42:00,
2013-11-01 23:43:00,75.8,72.7,29.93,NNE,24,0.0,0.0,90,0.00,,FEW,0.01,0.00,VWS V14.01,2013-11-02 03:43:00,
2013-11-01 23:44:00,75.8,73.0,29.93,NNE,24,0.0,0.0,91,0.00,,FEW,0.01,0.00,VWS V14.01,2013-11-02 03:44:00,
2013-11-01 23:46:00,75.8,73.0,29.93,NNE,24,0.0,0.0,91,0.00,,FEW,0.01,0.00,VWS V14.01,2013-11-02 03:46:00,
2013-11-01 23:48:00,75.8,73.0,29.93,NNE,24,0.0,0.0,91,0.00,,FEW,0.01,0.00,VWS V14.01,2013-11-02 03:48:00,
2013-11-01 23:49:00,75.8,73.0,29.93,NNE,24,0.0,0.0,91,0.00,,FEW,0.01,0.00,VWS V14.01,2013-11-02 03:49:00,
2013-11-01 23:51:00,75.8,73.0,29.93,NNE,24,0.0,0.0,91,0.00,,FEW,0.01,0.00,VWS V14.01,2013-11-02 03:51:00,
2013-11-01 23:53:00,75.8,73.0,29.93,NNE,24,0.0,0.0,91,0.00,,FEW,0.01,0.00,VWS V14.01,2013-11-02 03:53:00,
2013-11-01 23:54:00,75.8,73.0,29.93,NNE,24,0.0,0.0,91,0.00,,FEW,0.01,0.00,VWS V14.01,2013-11-02 03:54:00,
2013-11-01 23:57:00,75.8,73.0,29.93,NNE,24,0.0,0.0,91,0.00,,FEW,0.01,0.00,VWS V14.01,2013-11-02 03:57:00,
2013-11-01 23:58:00,75.8,72.7,29.93,NNE,24,0.0,0.0,90,0.00,,FEW,0.01,0.00,VWS V14.01,2013-11-02 03:58:00,
2013-11-01 23:59:00,75.8,72.7,29.93,NNE,24,0.0,0.0,90,0.00,,FEW,0.01,0.00,VWS V14.01,2013-11-02 03:59:00,